                ,  0.290,  0.390,  0.490,  0.590,  0.690,  0.790,  0.890,  0.990,  1.090,  1.190,  1.290,  1.390,  1.490,  1.590,  1.690,  1.790,  1.890,  1.990,  2.090,  2.190,  2.290,  2.390,  2.490,  2.590,  2.690,  2.790,  2.890,  2.990,  3.090,  3.190,  3.290,  3.390,  3.490,  3.590,  3.690,  3.790,  3.890,  3.990,  4.090,  4.190,  4.290,  4.390,  4.490,  4.590,  4.690,  4.790,  4.890,  4.990,  5.090,  5.190,  5.290,  5.390,  5.490,  5.590,  5.690,  5.790,  5.890,  5.990,  6.090,  6.190,  6.290,  6.390,  6.490,  6.590,  6.690,  6.790,  6.890,  6.990,  7.090,  7.190,  7.290,  7.390,  7.490,  7.590,  7.690,  7.790,  7.890,  7.990,  8.090,  8.190,  8.290,  8.390,  8.490,  8.590,  8.690,  8.790,  8.890,  8.990,  9.090,  9.190,  9.290,  9.390,  9.490,  9.590,  9.690,  9.790,  9.890,  9.990
2010/06/03 00:00,    0.1,    0.1,    0.2,    0.2,    0.1,    0.1,    0.1,    0.1,   -0.0,   -0.2,   -0.2,   -0.5,   -0.7,   -0.9,   -0.8,   -0.5,   -0.3,   -0.1,   -0.2,   -0.5,   -0.5,   -0.3,   -0.1,   -0.1,    0.0,    0.1,    0.0,   -0.1,   -0.0,   -0.0,   -0.1,   -0.0,   -0.0,   -0.1,   -0.0,    0.0,    0.1,   -0.0,   -0.0,   -0.0,   -0.0,   -0.0,    0.0,    0.0,   -0.0,   -0.0,   -0.0,   -0.0,    0.0,    0.0,    0.1,   -0.4,   -0.3,   -0.5,    0.0,   -0.1,   -1.3,   -1.5,   -1.5,   -1.5,   -1.5,   -1.6,   -1.6,   -1.6,   -1.6,   -1.6,   -1.6,   -1.6,   -1.6,   -1.8,   -1.8,   -1.9,   -1.9,   -2.0,   -1.9,   -2.0,   -2.0,   -1.8,   -1.7,   -1.5,   -1.4,   -1.2,   -1.2,   -1.2,   -1.2,   -1.2,   -1.2,   -1.3,   -1.3,   -1.3,   -1.4,   -1.4,   -1.4,   -1.4,   -1.4,   -1.4,   -1.5,   -1.4
2010/06/03 00:10,    0.2,    0.2,    0.0,   -0.0,   -0.2,   -0.3,   -0.2,   -0.2,   -0.3,   -0.3,   -0.4,   -0.3,   -0.2,   -0.0,   -0.0,   -0.0,   -0.1,   -0.2,   -0.3,   -0.3,   -0.0,   -0.1,   -0.1,    0.0,    0.1,    0.0,   -0.0,   -0.1,   -0.0,   -0.1,   -0.2,   -0.2,   -0.1,   -0.1,   -0.1,   -0.2,   -0.1,   -0.0,   -0.1,   -0.1,   -0.1,   -0.0,   -0.1,   -0.0,   -0.0,   -0.0,    0.0,   -0.4,   -0.5,   -0.7,   -1.2,   -1.3,   -1.3,   -1.2,   -1.2,   -1.3,   -1.3,   -1.4,   -1.6,   -1.8,   -1.9,   -1.9,   -1.9,   -1.9,   -1.9,   -1.9,   -1.9,   -2.0,   -2.0,   -2.0,   -2.0,   -2.1,   -2.1,   -2.0,   -1.9,   -1.8,   -1.6,   -1.5,   -1.4,   -1.1,   -1.1,   -1.0,   -1.0,   -1.0,   -1.0,   -1.0,   -1.0,   -1.0,   -1.0,   -1.1,   -1.1,   -1.1,   -1.0,   -0.9,   -0.9,   -0.7,   -0.6,   -0.6
2010/06/03 00:20,   -0.0,   -0.3,   -0.2,   -0.3,   -0.3,   -0.6,   -0.5,   -0.4,   -0.4,   -0.5,   -0.2,   -0.3,   -0.0,   -0.0,   -1.2,    0.1,   -0.0,    0.0,   -1.2,   -1.2,   -1.3,   -2.0,   -1.5,   -3.2,   -3.9,   -4.1,   -4.1,   -4.1,   -4.1,   -4.0,   -4.9,   -4.3,   -5.0,   -4.8,   -4.3,   -4.9,   -4.9,   -5.0,   -5.1,   -6.0,  999.0,  999.0,   -1.5,   -1.3,   -1.6,   -1.7,   -1.7,   -1.9,   -1.9,   -2.0,   -2.1,   -2.1,   -2.1,   -2.1,   -2.1,   -2.0,   -1.9,   -1.9,   -1.8,   -1.8,   -1.9,   -1.9,   -1.9,   -2.0,   -2.1,   -2.1,   -2.2,   -2.2,   -2.1,   -2.1,   -2.1,   -2.1,   -2.1,   -1.9,   -1.9,   -1.9,   -1.9,   -1.9,   -1.7,   -1.5,   -1.4,   -1.3,   -1.3,   -1.3,   -1.2,   -1.3,   -1.3,   -1.3,   -1.2,   -1.2,   -1.1,   -0.9,   -0.7,   -0.6,   -0.4,   -0.4,   -0.4,   -0.5
2010/06/03 00:30,   -6.6,   -6.7,   -6.9,   -7.0,   -6.1,   -6.1,   -6.2,   -6.2,   -6.5,   -6.4,   -6.2,   -6.0,   -6.0,   -5.9,   -5.9,   -6.0,   -5.7,   -5.7,   -5.7,   -6.5,   -6.5,   -6.5,   -6.4,   -6.2,   -6.2,   -6.0,   -6.0,   -5.8,   -5.9,   -4.4,   -5.8,   -5.8,   -4.4,   -4.4,   -4.1,   -4.3,   -4.2,   -4.2,   -3.9,   -3.7,   -2.5,   -2.2,   -1.5,   -0.6,    0.0,   -0.6,   -1.5,  999.0,   -1.5,   -1.4,   -1.5,   -1.7,   -1.8,   -1.9,   -1.9,   -2.2,   -2.2,   -2.2,   -2.2,   -2.2,   -2.1,   -2.0,   -2.1,   -2.0,   -1.9,   -1.8,   -1.8,   -2.0,   -1.8,   -1.7,   -1.5,   -1.5,   -1.4,   -1.5,   -1.4,   -1.2,   -1.1,   -1.1,   -1.1,   -1.1,   -1.0,   -0.9,   -1.0,   -0.9,   -0.9,   -0.9,   -0.9,   -0.9,   -0.9,   -0.8,   -0.9,   -0.9,   -1.0,   -1.0,   -0.9,   -0.9,   -0.9,   -0.9
2010/06/03 00:40,   -1.0,    0.8,    0.5,    0.1,   -1.2,   -1.2,   -1.3,   -1.2,   -1.1,   -0.9,   -1.2,   -0.8,   -1.2,   -1.1,   -0.8,   -0.8,   -1.5,  999.0,   -1.4,   -1.4,   -1.3,   -1.8,   -0.8,   -0.7,   -0.8,   -1.0,   -1.0,   -0.2,   -0.1,   -0.1,   -0.9,   -1.0,   -0.2,   -1.3,   -1.6,   -2.0,   -2.0,   -2.3,   -2.4,   -2.2,   -3.3,   -3.0,  999.0,  999.0,   -1.2,   -1.2,   -1.0,   -1.2,   -1.3,   -1.4,   -1.6,   -1.7,   -1.8,   -1.8,   -2.0,   -2.1,   -2.2,   -2.3,   -2.4,   -2.3,   -2.0,   -1.8,   -1.6,   -1.4,   -1.3,   -1.2,   -1.2,   -1.3,   -1.3,   -1.4,   -1.4,   -1.3,   -1.3,   -1.3,   -1.3,   -1.2,   -1.2,   -1.2,   -1.2,   -1.1,   -1.1,   -1.0,   -0.9,   -0.9,   -0.9,   -0.9,   -0.9,   -0.9,   -1.0,   -1.0,   -1.0,   -1.0,   -1.0,   -0.9,   -0.8,   -0.8,   -0.8,   -0.8
2010/06/03 00:50,   -3.8,   -3.4,   -3.4,   -3.4,   -3.2,   -3.2,   -3.3,   -3.3,   -3.8,   -3.7,   -3.5,   -3.8,   -3.9,   -3.9,   -3.9,   -4.9,   -5.0,   -5.1,   -5.2,   -5.2,   -5.2,   -5.1,   -5.6,   -5.6,   -5.5,   -5.6,   -5.7,   -5.7,   -5.2,   -5.4,   -5.3,   -5.5,   -5.5,   -5.5,   -5.4,   -5.4,   -5.3,   -5.3,   -5.4,   -5.5,   -5.3,   -4.9,  999.0,  999.0,  999.0,  999.0,   -1.6,   -1.7,   -1.9,   -1.9,   -1.8,   -1.9,   -1.9,   -2.0,   -1.9,   -1.9,   -1.8,   -1.8,   -1.8,   -1.8,   -1.8,   -1.8,   -1.7,   -1.6,   -1.5,   -1.3,   -1.2,   -1.3,   -1.2,   -1.2,   -1.2,   -1.2,   -1.2,   -1.2,   -1.2,   -1.2,   -1.1,   -1.1,   -1.2,   -1.2,   -1.3,   -1.2,   -1.2,   -1.3,   -1.3,   -1.3,   -1.3,   -1.3,   -1.3,   -1.2,   -1.2,   -1.0,   -1.0,   -1.0,   -1.0,   -1.0,   -1.0,   -0.9
2010/06/03 01:00,   -5.5,   -5.3,   -5.3,   -5.4,   -5.7,   -5.6,   -5.5,   -5.6,   -5.8,   -5.7,   -5.7,   -5.7,   -5.9,   -5.8,   -5.9,   -6.0,   -6.1,   -6.2,   -6.3,   -6.5,   -6.5,   -6.7,   -6.5,   -6.5,   -6.5,   -6.5,   -6.6,   -6.7,   -6.7,   -6.8,   -7.0,   -7.2,   -7.2,   -7.2,   -7.1,   -7.1,   -7.5,   -7.2,   -7.0,   -6.7,   -6.1,  999.0,  999.0,  999.0,   -1.6,   -1.7,   -1.8,   -1.8,   -1.9,   -1.9,   -2.0,   -2.0,   -2.0,   -1.9,   -1.8,   -1.9,   -2.0,   -1.9,   -1.8,   -1.8,   -1.7,   -1.6,   -1.6,   -1.6,   -1.5,   -1.5,   -1.4,   -1.4,   -1.5,   -1.5,   -1.4,   -1.5,   -1.5,   -1.5,   -1.6,   -1.6,   -1.7,   -1.7,   -1.7,   -1.7,   -1.7,   -1.7,   -1.6,   -1.6,   -1.7,   -1.7,   -1.6,   -1.5,   -1.4,   -1.3,   -1.2,   -1.2,   -1.1,   -1.1,   -1.2,   -1.1,   -1.1,   -1.0
2010/06/03 01:10,   -5.8,   -5.7,   -5.6,   -5.9,   -5.8,   -5.8,   -6.0,   -6.0,   -5.8,   -6.0,   -6.0,   -6.1,   -6.3,   -6.3,   -6.4,   -6.5,   -6.4,   -6.4,   -6.5,   -6.7,   -6.7,   -6.7,   -6.6,   -6.6,   -6.7,   -6.8,   -6.8,   -6.9,   -6.9,   -7.0,   -7.2,   -7.2,   -7.3,   -7.5,   -7.5,   -7.3,   -7.4,   -7.4,   -7.1,   -6.6,   -4.9,  999.0,   -2.6,   -2.2,   -2.1,   -2.0,   -1.9,   -1.9,   -1.9,   -2.0,   -2.0,   -1.9,   -1.9,   -1.9,   -1.9,   -1.9,   -1.8,   -1.8,   -1.7,   -1.6,   -1.6,   -1.6,   -1.7,   -1.8,   -1.8,   -1.8,   -1.8,   -1.8,   -1.8,   -1.8,   -1.8,   -1.8,   -1.7,   -1.7,   -1.6,   -1.6,   -1.5,   -1.5,   -1.5,   -1.5,   -1.5,   -1.6,   -1.5,   -1.5,   -1.7,   -1.7,   -1.7,   -1.6,   -1.6,   -1.7,   -1.4,   -1.4,   -1.4,   -1.5,   -1.4,   -1.4,   -1.3,   -1.2
2010/06/03 01:20,   -6.6,   -6.3,   -7.2,   -7.0,   -7.4,   -7.3,   -7.2,   -7.1,   -7.1,   -7.1,   -7.4,   -7.1,   -7.4,   -7.7,   -7.4,   -7.2,   -7.2,   -7.4,   -7.5,   -7.5,   -7.4,   -7.5,   -7.4,   -7.4,   -7.3,   -7.4,   -7.5,   -7.7,   -7.6,   -7.7,   -7.6,   -7.6,   -7.6,   -7.8,   -7.8,   -7.9,   -7.8,   -7.6,   -7.4,   -6.6,   -5.3,   -3.6,   -2.9,   -2.4,   -2.5,   -2.4,   -2.4,   -2.4,   -2.4,   -2.4,   -2.3,   -2.2,   -2.1,   -2.0,   -1.9,   -1.7,   -1.6,   -1.5,   -1.4,   -1.3,   -1.4,   -1.4,   -1.5,   -1.5,   -1.5,   -1.5,   -1.6,   -1.6,   -1.6,   -1.6,   -1.7,   -1.7,   -1.7,   -1.7,   -1.6,   -1.6,   -1.6,   -1.6,   -1.6,   -1.7,   -1.7,   -1.7,   -1.8,   -1.8,   -1.9,   -1.9,   -1.8,   -1.7,   -1.7,   -1.6,   -1.5,   -1.4,   -1.2,   -1.1,   -1.0,   -1.0,   -0.9,   -0.9
2010/06/03 01:30,  999.0,   -6.8,   -7.2,   -7.2,   -7.2,   -7.1,   -7.0,   -6.8,   -6.7,   -6.9,   -7.3,   -7.3,   -7.3,   -7.2,   -7.4,   -7.2,   -7.4,   -7.5,   -7.6,   -7.6,   -7.6,   -7.7,   -7.9,   -7.8,   -7.7,   -7.8,   -7.8,   -7.8,   -7.8,   -7.8,   -7.9,   -7.8,   -7.9,   -7.9,   -7.9,   -8.0,   -8.0,   -7.7,   -7.5,   -6.7,   -5.5,   -4.4,   -3.7,   -3.2,   -2.6,   -2.6,   -2.4,   -2.4,   -2.4,   -2.4,   -2.5,   -2.5,   -2.4,   -2.1,   -1.9,   -1.9,   -1.8,   -1.7,   -1.7,   -1.7,   -1.7,   -1.8,   -1.8,   -1.8,   -1.8,   -1.7,   -1.7,   -1.6,   -1.6,   -1.7,   -1.8,   -1.9,   -1.9,   -1.9,   -1.8,   -1.7,   -1.7,   -1.7,   -1.7,   -1.7,   -1.7,   -1.6,   -1.5,   -1.6,   -1.5,   -1.6,   -1.6,   -1.6,   -1.5,   -1.4,   -1.3,   -1.2,   -1.0,   -0.8,   -0.7,   -0.6,   -0.6,   -0.6
2010/06/03 01:40,   -7.1,   -6.9,   -6.9,   -6.9,   -7.3,   -7.1,   -7.1,   -7.2,   -7.5,   -7.4,   -7.2,   -7.1,   -7.2,   -7.3,   -7.4,   -7.3,   -7.0,   -7.2,   -7.1,   -7.0,   -7.1,   -6.9,   -7.0,   -7.2,   -7.3,   -7.4,   -7.5,   -7.5,   -7.5,   -7.7,   -7.8,   -7.8,   -7.8,   -7.9,   -8.0,   -8.0,   -8.1,   -8.1,   -7.9,   -7.1,   -5.6,   -4.5,   -3.7,   -3.2,   -2.7,   -2.2,   -1.9,   -1.9,   -2.0,   -2.0,   -2.0,   -1.9,   -1.8,   -1.7,   -1.8,   -1.7,   -1.7,   -1.7,   -1.8,   -1.9,   -1.9,   -1.9,   -2.0,   -2.0,   -2.0,   -2.0,   -2.0,   -2.0,   -2.0,   -1.9,   -1.9,   -1.9,   -1.9,   -1.9,   -1.9,   -1.9,   -1.9,   -1.8,   -1.9,   -1.8,   -1.9,   -1.8,   -1.9,   -1.9,   -1.8,   -1.8,   -1.6,   -1.5,   -1.5,   -1.4,   -1.2,   -1.1,   -0.9,   -0.7,   -0.7,   -0.7,   -0.7,   -0.8
2010/06/03 01:50,   -6.3,   -6.7,   -6.9,   -7.1,   -7.3,   -7.3,   -7.4,   -7.3,   -7.4,   -7.4,   -7.5,   -7.5,   -7.6,   -7.6,   -7.6,   -7.6,   -7.6,   -7.6,   -7.5,   -7.7,   -7.7,   -7.6,   -7.8,   -8.0,   -7.9,   -7.8,   -7.9,   -8.1,   -8.1,   -8.1,   -8.1,   -8.1,   -8.0,   -8.1,   -8.1,   -8.1,   -8.2,   -8.1,  999.0,  999.0,   -6.1,   -5.1,   -4.2,   -3.4,   -2.9,   -2.5,   -2.1,   -2.0,   -2.0,   -2.1,   -2.1,   -2.1,   -2.1,   -2.1,   -2.1,   -2.1,   -2.2,   -2.1,   -2.1,   -2.0,   -2.0,   -1.9,   -1.8,   -1.7,   -1.8,   -1.8,   -1.7,   -1.7,   -1.7,   -1.7,   -1.7,   -1.7,   -1.7,   -1.7,   -1.7,   -1.6,   -1.6,   -1.7,   -1.7,   -1.6,   -1.5,   -1.4,   -1.3,   -1.2,   -1.1,   -1.0,   -1.0,   -0.9,   -1.0,   -0.9,   -0.9,   -0.9,   -0.9,   -1.0,   -1.0,   -1.1,   -1.1,   -1.0
2010/06/03 02:00,   -7.1,   -7.1,   -6.8,   -7.0,   -7.1,   -7.3,   -7.3,   -7.4,   -7.4,   -7.4,   -7.5,   -7.6,   -7.5,   -7.5,   -7.5,   -7.4,   -7.3,   -7.3,   -7.3,   -7.3,   -7.4,   -7.5,   -7.6,   -7.6,   -7.8,   -7.8,   -7.9,   -7.9,   -8.1,   -8.0,   -8.1,   -8.2,   -8.2,   -8.2,   -8.2,   -8.3,   -8.2,   -8.2,   -8.3,   -8.2,   -7.7,   -6.9,   -5.8,   -4.7,   -3.8,   -3.1,   -2.7,   -2.5,   -2.4,   -2.4,   -2.5,   -2.5,   -2.3,   -2.2,   -2.1,   -2.0,   -1.9,   -1.8,   -1.7,   -1.7,   -1.6,   -1.6,   -1.5,   -1.5,   -1.5,   -1.4,   -1.4,   -1.4,   -1.4,   -1.4,   -1.3,   -1.2,   -1.2,   -1.1,   -1.0,   -1.0,   -1.0,   -1.0,   -1.0,   -0.9,   -0.9,   -0.9,   -0.8,   -0.8,   -0.8,   -0.8,   -0.8,   -0.8,   -0.8,   -0.8,   -0.8,   -0.7,   -0.7,   -0.6,   -0.6,   -0.6,   -0.7,   -0.6
2010/06/03 02:10,   -6.9,   -6.9,   -6.9,   -6.8,   -6.8,   -6.9,   -6.9,   -6.7,   -6.8,   -7.0,   -7.0,   -7.0,   -7.0,   -7.1,   -7.0,   -7.0,   -7.1,   -7.0,   -7.1,   -7.1,   -7.1,   -7.1,   -7.0,   -7.2,   -7.3,   -7.3,   -7.3,   -7.3,   -7.4,   -7.4,   -7.6,   -7.7,   -7.8,   -7.8,   -7.9,   -7.9,   -7.9,   -7.8,   -7.9,  999.0,  999.0,   -7.2,   -6.0,   -4.7,   -3.7,   -3.0,   -2.3,   -2.1,   -2.1,   -2.0,   -1.9,   -1.8,   -1.7,   -1.6,   -1.5,   -1.4,   -1.4,   -1.3,   -1.3,   -1.2,   -1.1,   -1.2,   -1.2,   -1.2,   -1.2,   -1.2,   -1.1,   -1.0,   -0.9,   -0.8,   -0.8,   -0.8,   -0.8,   -0.8,   -0.8,   -0.8,   -0.8,   -0.8,   -0.9,   -0.8,   -0.9,   -0.9,   -0.9,   -0.9,   -0.8,   -0.7,   -0.9,   -0.9,   -1.1,   -1.3,   -1.2,   -1.2,   -1.1,   -1.2,   -1.2,   -1.1,   -1.2,   -1.2
2010/06/03 02:20,   -6.4,   -6.6,   -6.5,   -6.5,   -6.5,   -6.5,   -6.6,   -6.5,   -6.5,   -6.5,   -6.5,   -6.4,   -6.6,   -6.6,   -6.5,   -6.5,   -6.6,   -6.4,   -6.4,   -6.6,   -6.6,   -6.6,   -6.7,   -6.9,   -6.9,   -6.9,   -7.2,   -7.3,   -7.2,   -7.3,   -7.4,   -7.4,   -7.1,   -7.2,   -7.4,   -7.4,   -7.6,   -7.3,   -7.1,   -7.1,   -7.1,   -6.4,   -4.9,   -3.3,  999.0,   -1.8,   -1.5,   -1.4,   -1.3,   -1.3,   -1.3,   -1.3,   -1.5,   -1.2,   -1.2,   -1.3,   -1.6,   -1.5,   -1.2,   -1.6,   -1.7,   -1.6,   -1.2,   -1.1,   -1.4,   -1.2,   -1.2,   -1.1,   -1.1,   -1.0,   -0.9,   -0.8,   -0.8,   -0.7,   -0.7,   -0.7,   -0.8,   -1.0,   -1.0,   -1.0,   -1.0,   -1.1,   -1.2,   -1.3,   -1.2,   -1.2,   -1.2,   -1.2,   -1.2,   -1.2,   -1.2,   -1.1,   -1.1,   -1.1,   -1.0,   -1.0,   -0.9,   -0.8
2010/06/03 02:30,   -4.3,   -4.6,   -4.6,   -4.7,   -4.6,   -4.7,   -4.6,   -4.4,   -4.2,   -4.4,   -4.4,   -4.3,   -4.3,   -4.4,   -4.4,   -4.3,   -4.3,   -4.2,   -4.3,   -3.9,   -3.6,   -3.5,   -3.3,   -3.2,   -3.1,   -3.1,   -3.2,   -3.4,   -3.5,   -3.3,   -3.3,   -3.2,   -3.2,   -3.1,   -3.3,   -3.3,   -3.3,   -3.7,   -3.8,   -3.8,   -3.9,   -3.9,   -3.7,   -3.5,   -2.6,  999.0,   -2.0,   -1.9,   -1.8,   -1.7,   -1.6,   -1.5,   -1.3,   -1.2,   -1.0,   -0.9,   -0.9,   -1.0,   -1.1,   -1.0,   -0.4,   -0.3,   -0.2,   -0.3,  999.0,   -0.4,   -0.4,   -0.7,   -1.0,   -1.0,   -1.2,   -1.3,   -1.3,   -1.4,   -1.4,   -1.4,   -1.4,   -1.4,   -1.4,   -1.5,   -1.5,   -1.4,   -1.4,   -1.4,   -1.3,   -1.3,   -1.3,   -1.3,   -1.2,   -1.2,   -1.2,   -1.2,   -1.1,   -1.0,   -1.0,   -0.9,   -0.8,   -0.8
2010/06/03 02:40,   -4.4,   -4.4,   -4.3,   -4.3,   -4.7,   -4.6,   -5.5,   -5.2,   -5.3,   -5.2,   -5.1,   -5.0,   -5.0,   -5.1,   -5.1,   -5.8,   -5.9,   -6.0,   -5.9,   -5.9,   -5.9,   -5.8,   -5.6,   -5.5,   -5.5,   -5.7,   -6.0,   -5.8,   -5.5,   -6.0,   -6.4,   -6.4,   -6.4,   -6.5,   -6.3,   -6.2,   -6.4,   -6.5,   -6.3,   -6.7,   -6.5,   -6.0,   -4.9,   -3.2,  999.0,   -2.0,   -1.8,   -1.7,   -1.6,   -1.3,   -1.2,   -1.2,   -1.2,   -1.2,   -1.1,   -1.2,   -1.3,   -1.3,   -1.3,   -1.2,   -1.0,   -0.8,   -1.0,   -1.1,   -1.0,   -1.1,   -1.2,   -1.3,   -1.3,   -1.2,   -1.3,   -1.3,   -1.3,   -1.4,   -1.4,   -1.5,   -1.5,   -1.5,   -1.4,   -1.4,   -1.3,   -1.3,   -1.2,   -1.1,   -1.2,   -1.2,   -1.2,   -1.2,   -1.2,   -1.2,   -1.2,   -1.2,   -1.2,   -1.1,   -1.1,   -1.1,   -1.0,   -1.0
2010/06/03 02:50,   -5.5,   -5.8,   -5.8,   -5.8,   -6.3,   -6.3,   -6.3,   -6.2,   -6.3,   -6.1,   -6.1,   -5.9,   -6.0,   -6.0,   -5.9,   -6.1,   -6.1,   -6.2,   -6.3,   -6.3,   -6.2,   -6.2,   -6.2,   -6.3,   -6.3,   -6.4,   -6.4,   -6.4,   -6.5,   -6.7,   -6.9,   -7.0,   -7.0,   -7.3,   -7.2,   -7.2,   -7.4,   -7.2,   -7.3,   -7.4,   -7.7,   -7.2,   -6.3,  999.0,  999.0,  999.0,   -1.8,   -1.7,   -1.7,   -1.6,   -1.5,   -1.5,   -1.5,   -1.5,   -1.4,   -1.4,   -1.4,   -1.4,   -1.5,   -1.6,   -1.7,   -1.6,   -1.7,   -1.7,   -1.6,   -1.5,   -1.4,   -1.5,   -1.5,   -1.5,   -1.5,   -1.5,   -1.4,   -1.4,   -1.3,   -1.3,   -1.3,   -1.3,   -1.4,   -1.5,   -1.5,   -1.5,   -1.5,   -1.4,   -1.4,   -1.4,   -1.4,   -1.4,   -1.3,   -1.3,   -1.3,   -1.3,   -1.2,   -1.1,   -1.1,   -1.0,   -1.0,   -1.0
2010/06/03 03:00,   -5.8,   -5.9,   -6.0,   -6.1,   -6.2,   -6.5,   -6.5,   -6.3,   -6.3,   -6.2,   -6.1,   -6.2,   -6.1,   -6.1,   -6.1,   -6.2,   -6.3,   -6.4,   -6.4,   -6.5,   -6.5,   -6.4,   -6.6,   -6.7,   -6.7,   -6.7,   -6.8,   -6.9,   -7.0,   -7.0,   -6.9,   -6.9,   -6.9,   -6.9,   -7.0,   -7.0,   -7.0,   -7.2,   -6.9,   -7.0,   -6.9,   -6.8,   -6.4,  999.0,  999.0,  999.0,   -1.3,   -1.4,   -1.5,   -1.5,   -1.6,   -1.6,   -1.7,   -1.7,   -1.8,   -1.9,   -1.9,   -1.9,   -1.9,   -1.8,   -1.8,   -1.7,   -1.6,   -1.6,   -1.6,   -1.6,   -1.5,   -1.5,   -1.4,   -1.3,   -1.2,   -1.2,   -1.2,   -1.2,   -1.2,   -1.2,   -1.2,   -1.2,   -1.2,   -1.2,   -1.1,   -1.1,   -1.1,   -1.1,   -1.1,   -1.0,   -1.0,   -1.0,   -0.9,   -0.8,   -0.8,   -0.7,   -0.7,   -0.6,   -0.7,   -0.6,   -0.6,   -0.6
2010/06/03 03:10,   -5.6,   -5.7,   -5.8,   -5.7,   -5.7,   -5.6,   -6.0,   -5.9,   -5.9,   -5.9,   -5.6,   -5.3,   -5.4,   -6.0,   -5.8,   -6.0,   -5.9,   -5.9,   -6.1,   -6.1,   -6.2,   -6.7,   -6.8,   -6.8,   -6.8,   -6.9,   -6.9,   -7.0,   -7.0,   -6.7,   -6.7,   -6.9,   -6.9,   -6.9,   -6.7,   -6.7,   -6.7,   -6.9,   -7.0,   -6.9,   -6.8,   -6.6,  999.0,  999.0,  999.0,   -1.6,   -1.6,   -1.6,   -1.7,   -1.6,   -1.7,   -1.6,   -1.6,   -1.7,   -1.7,   -1.7,   -1.7,   -1.6,   -1.6,   -1.6,   -1.6,   -1.6,   -1.6,   -1.5,   -1.5,   -1.4,   -1.3,   -1.3,   -1.2,   -1.2,   -1.3,   -1.3,   -1.2,   -1.1,   -1.1,   -1.1,   -1.1,   -1.1,   -1.1,   -1.1,   -1.0,   -1.0,   -0.9,   -0.8,   -0.8,   -0.7,   -0.7,   -0.6,   -0.5,   -0.6,   -0.5,   -0.6,   -0.6,   -0.6,   -0.6,   -0.6,   -0.6,   -0.5
2010/06/03 03:20,   -5.2,   -5.5,   -5.5,   -5.9,   -5.7,   -6.0,   -5.8,   -5.9,   -5.8,   -5.5,   -5.7,   -6.0,   -5.8,   -6.1,   -5.8,   -6.1,   -6.3,   -6.1,   -5.9,   -6.1,   -6.2,   -6.3,   -6.2,   -6.4,   -6.3,   -6.7,   -6.7,   -6.7,   -6.9,   -6.9,   -6.9,   -6.9,   -6.9,   -6.8,   -6.9,   -7.0,   -7.0,   -6.9,   -7.0,   -6.5,   -6.4,   -6.3,   -5.0,  999.0,  999.0,   -2.1,   -1.8,   -1.8,   -1.8,   -1.7,   -1.7,   -1.8,   -1.8,   -1.8,   -1.8,   -1.8,   -1.7,   -1.6,   -1.6,   -1.6,   -1.6,   -1.5,   -1.5,   -1.3,   -1.3,   -1.3,   -1.3,   -1.3,   -1.3,   -1.3,   -1.3,   -1.3,   -1.4,   -1.4,   -1.4,   -1.3,   -1.3,   -1.3,   -1.2,   -1.2,   -1.1,   -1.0,   -1.0,   -0.9,   -0.9,   -0.9,   -0.8,   -0.9,   -0.8,   -0.8,   -0.8,   -0.8,   -0.7,   -0.6,   -0.6,   -0.6,   -0.6,   -0.6
2010/06/03 03:30,   -6.5,   -6.7,   -6.9,   -6.9,   -6.8,   -7.1,   -6.9,   -6.9,   -7.0,   -6.6,   -6.7,   -6.6,   -6.8,   -6.6,   -6.7,   -6.6,   -6.7,   -6.6,   -6.7,   -6.8,   -6.7,   -7.0,   -7.0,   -7.1,   -7.0,   -7.1,   -7.1,   -7.2,   -7.2,   -6.7,   -7.2,   -7.0,   -7.3,   -7.3,   -7.6,   -7.4,   -7.5,   -7.5,   -7.2,  999.0,  999.0,  999.0,  999.0,  999.0,  999.0,   -1.7,   -1.9,   -1.9,   -1.9,   -1.9,   -1.9,   -1.9,   -1.9,   -2.0,   -2.0,   -2.0,   -2.0,   -2.1,   -2.1,   -2.1,   -2.1,   -2.1,   -2.0,   -1.9,   -1.8,   -1.8,   -1.9,   -2.0,   -2.1,   -2.3,   -2.4,   -2.3,   -2.2,   -2.0,   -1.9,   -1.7,   -1.6,   -1.5,   -1.5,   -1.4,   -1.4,   -1.4,   -1.4,   -1.4,   -1.4,   -1.4,   -1.4,   -1.4,   -1.3,   -1.3,   -1.4,   -1.3,   -1.3,   -1.3,   -1.2,   -1.1,   -1.1,   -1.0
2010/06/03 03:40,   -5.6,   -6.1,   -6.1,   -6.1,   -5.9,   -5.9,   -5.9,   -5.9,   -6.0,   -6.0,   -5.9,   -6.1,   -5.9,   -6.0,   -6.4,   -6.2,   -6.3,   -6.3,   -6.5,   -6.5,   -6.5,   -6.4,   -6.9,   -7.0,   -6.9,   -6.9,   -6.9,   -7.2,   -7.3,   -7.4,   -7.5,   -7.6,   -7.7,   -7.7,   -7.7,   -7.8,   -7.8,   -7.9,   -7.8,   -7.9,   -7.7,   -6.5,  999.0,  999.0,  999.0,   -2.2,   -1.9,   -1.6,   -1.6,   -1.6,   -1.6,   -1.7,   -1.8,   -1.8,   -1.9,   -1.9,   -1.9,   -1.9,   -1.8,   -1.8,   -1.8,   -1.8,   -1.8,   -1.8,   -1.7,   -1.7,   -1.7,   -1.6,   -1.6,   -1.6,   -1.7,   -1.7,   -1.7,   -1.8,   -1.8,   -1.8,   -1.6,   -1.4,   -1.2,   -1.2,   -1.2,   -1.2,   -1.2,   -1.2,   -1.3,   -1.3,   -1.3,   -1.2,   -1.2,   -1.2,   -1.1,   -1.1,   -1.1,   -1.2,   -1.1,   -1.1,   -1.1,   -1.1
2010/06/03 03:50,   -6.7,   -6.9,   -7.0,   -7.1,   -7.2,   -7.1,   -7.2,   -6.9,   -7.1,   -7.2,   -7.1,   -6.9,   -6.9,   -7.0,   -7.0,   -6.9,   -6.9,   -7.0,   -6.9,   -7.0,   -7.0,   -7.0,   -7.2,   -7.1,   -7.3,   -7.2,   -7.4,   -7.3,   -7.4,   -7.4,   -7.5,   -7.6,   -7.5,   -7.6,   -7.6,   -7.6,   -7.7,   -7.8,   -7.9,   -8.0,   -7.6,   -6.3,   -4.8,  999.0,  999.0,  999.0,   -2.0,   -1.9,   -2.0,   -2.0,   -2.2,   -2.3,   -2.3,   -2.3,   -2.3,   -2.3,   -2.3,   -2.2,   -2.1,   -2.0,   -1.9,   -1.9,   -1.8,   -1.7,   -1.7,   -1.6,   -1.5,   -1.4,   -1.4,   -1.3,   -1.3,   -1.2,   -1.1,   -1.1,   -1.1,   -1.1,   -1.0,   -1.0,   -0.9,   -0.8,   -0.7,   -0.7,   -0.8,   -0.8,   -0.8,   -0.7,   -0.8,   -0.8,   -0.8,   -0.8,   -0.9,   -0.9,   -0.9,   -0.9,   -0.9,   -0.9,   -0.9,   -0.9
2010/06/03 04:00,   -6.7,   -6.6,   -6.9,   -7.0,   -7.1,   -7.2,   -7.1,   -7.2,   -7.5,   -7.4,   -7.3,   -7.2,   -7.4,   -7.6,   -7.2,   -7.5,   -7.6,   -7.6,   -7.5,   -7.5,   -7.6,   -7.4,   -7.5,   -7.6,   -7.7,   -7.7,   -7.7,   -7.9,   -7.9,   -8.0,   -8.1,   -8.0,   -8.1,   -8.1,   -8.3,   -8.2,   -8.2,   -8.3,  999.0,  999.0,  999.0,   -4.8,   -3.7,   -2.9,   -2.6,   -2.4,   -2.3,   -2.2,   -2.1,   -2.0,   -1.9,   -1.8,   -1.8,   -1.7,   -1.7,   -1.7,   -1.6,   -1.6,   -1.6,   -1.5,   -1.4,   -1.4,   -1.4,   -1.3,   -1.3,   -1.2,   -1.3,   -1.3,   -1.2,   -1.1,   -1.3,   -1.2,   -1.1,   -1.1,   -1.1,   -1.1,   -1.1,   -1.0,   -1.0,   -1.0,   -1.0,   -0.9,   -0.9,   -0.8,   -0.8,   -0.8,   -0.9,   -0.9,   -0.9,   -0.9,   -0.9,   -1.0,   -1.0,   -0.9,   -0.9,   -0.9,   -0.9,   -0.9
2010/06/03 04:10,   -7.1,   -7.5,   -7.2,   -7.4,   -7.4,   -7.6,   -7.5,   -7.6,   -7.3,   -7.3,   -7.4,   -7.5,   -7.4,   -7.4,   -7.5,   -7.5,   -7.4,   -7.4,   -7.4,   -7.3,   -7.3,   -7.3,   -7.2,   -7.2,   -7.3,   -7.5,   -7.4,   -7.6,   -7.6,   -7.7,   -7.7,   -7.8,   -7.8,   -7.8,   -7.8,   -7.9,   -7.9,   -7.9,   -8.0,   -7.2,   -6.2,   -4.5,   -3.3,   -2.7,   -2.6,   -2.7,   -2.7,   -2.6,   -2.5,   -2.5,   -2.4,   -2.2,   -2.1,   -2.0,   -1.9,   -1.9,   -1.9,   -1.8,   -1.7,   -1.6,   -1.5,   -1.4,   -1.3,   -1.3,   -1.2,   -1.2,   -1.1,   -1.0,   -1.0,   -1.0,   -1.0,   -1.0,   -0.9,   -0.9,   -0.9,   -0.9,   -0.9,   -1.0,   -1.0,   -1.0,   -1.0,   -0.9,   -0.9,   -0.9,   -0.9,   -1.0,   -1.0,   -1.0,   -1.0,   -1.0,   -1.0,   -1.0,   -1.0,   -1.1,   -1.1,   -1.1,   -1.1,   -1.0
2010/06/03 04:20,   -6.5,   -6.8,   -6.8,   -6.8,   -6.7,   -6.5,   -6.5,   -6.5,   -6.6,   -6.4,   -6.6,   -6.7,   -6.8,   -6.8,   -6.7,   -6.6,   -6.4,   -6.9,   -6.7,   -6.7,   -6.7,   -7.0,   -7.0,   -7.1,   -6.7,   -6.8,   -6.7,   -6.7,   -6.6,   -6.8,   -6.6,   -6.8,   -6.7,   -6.7,   -6.6,   -6.6,   -5.6,   -5.4,   -5.4,  999.0,   -5.7,   -4.8,   -3.1,  999.0,   -1.7,   -1.7,   -1.7,   -1.8,   -1.8,   -1.7,   -1.7,   -1.6,   -1.6,   -1.6,   -1.6,   -1.7,   -1.8,   -1.9,   -2.0,   -2.1,   -2.1,   -2.1,   -2.1,   -2.0,   -1.8,   -1.7,   -1.5,   -1.4,   -1.3,   -1.3,   -1.3,   -1.3,   -1.2,   -1.2,   -1.2,   -1.2,   -1.3,   -1.2,   -1.2,   -1.1,   -1.1,   -1.1,   -1.1,   -1.1,   -1.1,   -1.1,   -1.1,   -1.2,   -1.2,   -1.2,   -1.1,   -1.1,   -1.0,   -1.1,   -1.1,   -1.1,   -1.0,   -1.0
2010/06/03 04:30,   -6.3,   -6.1,   -5.4,   -5.0,   -5.5,   -5.4,   -5.4,   -5.2,   -5.1,   -5.1,   -4.9,   -5.3,   -5.2,   -5.1,   -5.5,   -5.5,   -5.3,   -5.4,   -5.0,   -5.4,   -5.5,   -5.7,   -5.7,   -6.2,   -6.4,   -6.4,   -6.5,   -6.6,   -6.6,   -6.5,   -6.8,   -6.6,   -7.3,   -7.4,   -7.5,   -7.4,   -7.5,   -7.4,   -7.8,  999.0,  999.0,   -5.5,   -3.4,   -2.7,   -2.4,   -2.4,   -2.4,   -2.4,   -2.4,   -2.4,   -2.3,   -2.2,   -2.2,   -2.1,   -2.2,   -2.2,   -2.2,   -2.1,   -2.1,   -2.1,   -2.0,   -1.8,   -1.7,   -1.6,   -1.5,   -1.4,   -1.3,   -1.2,   -1.0,   -0.9,   -0.8,   -0.7,   -0.7,   -0.7,   -0.9,   -0.9,   -0.9,   -1.0,   -1.0,   -1.1,   -1.0,   -0.9,   -0.9,   -0.9,   -0.8,   -0.8,   -0.7,   -0.7,   -0.6,   -0.6,   -0.7,   -0.8,   -0.8,   -0.8,   -0.8,   -0.7,   -0.8,   -0.8
2010/06/03 04:40,   -7.0,   -7.0,   -7.2,   -7.2,   -7.2,   -7.3,   -7.2,   -7.3,   -7.3,   -7.4,   -7.5,   -7.5,   -7.4,   -7.4,   -7.3,   -7.3,   -7.2,   -7.3,   -7.4,   -7.5,   -7.4,   -7.5,   -7.4,   -7.5,   -7.7,   -7.7,   -7.9,   -8.0,   -7.9,   -8.0,   -8.1,   -8.1,   -8.3,   -8.4,  999.0,  999.0,  999.0,  999.0,  999.0,  999.0,  999.0,   -4.7,   -3.6,   -3.1,   -2.9,   -2.9,   -2.7,   -2.4,   -2.3,   -2.2,   -2.2,   -2.2,   -2.1,   -2.0,   -2.0,   -1.9,   -1.8,   -1.7,   -1.7,   -1.6,   -1.6,   -1.6,   -1.5,   -1.3,   -1.1,   -1.1,   -1.2,   -1.3,   -1.4,   -1.5,   -1.5,   -1.4,   -1.3,   -1.4,   -1.4,   -1.4,   -1.4,   -1.2,   -1.3,   -1.1,   -1.1,   -1.1,   -1.0,   -0.9,   -0.8,   -0.7,   -0.7,   -0.7,   -0.7,   -0.8,   -0.8,   -0.8,   -0.8,   -0.8,   -0.8,   -0.8,   -0.8,   -0.8
2010/06/03 04:50,   -7.4,   -7.4,   -7.7,   -7.6,   -7.9,   -7.8,   -7.9,   -7.7,   -7.7,   -7.8,   -8.0,   -8.1,   -7.8,   -7.6,   -7.6,   -7.8,   -7.7,   -7.7,   -7.8,   -7.7,   -7.8,   -7.8,   -7.9,   -8.0,   -8.1,   -8.2,   -8.1,   -7.9,   -8.1,   -8.1,   -8.0,   -7.9,   -8.0,   -8.1,   -7.9,   -7.8,   -7.8,   -7.0,  999.0,  999.0,  999.0,  999.0,  999.0,  999.0,   -2.6,   -2.4,   -2.2,   -2.1,   -2.0,   -1.9,   -1.9,   -1.7,   -1.6,   -1.5,   -1.4,   -1.5,   -1.4,   -1.2,   -1.1,   -0.9,   -0.8,   -0.7,   -0.7,   -1.2,   -1.3,   -1.2,   -0.7,   -0.9,   -1.3,   -1.0,   -1.1,   -1.1,   -1.2,   -1.0,   -0.9,   -1.0,   -1.0,   -1.1,   -1.3,   -1.4,   -1.4,   -1.4,   -1.4,   -1.4,   -1.5,   -1.5,   -1.5,   -1.5,   -1.4,   -1.4,   -1.3,   -1.3,   -1.2,   -1.1,   -1.0,   -1.1,   -1.0,   -1.0
2010/06/03 05:00,   -5.0,   -5.3,   -5.4,   -5.6,   -5.6,   -5.4,   -5.3,   -5.3,   -5.5,   -5.5,   -5.5,   -5.7,   -5.5,   -5.3,   -5.1,   -5.1,   -5.1,   -5.0,   -5.2,   -5.2,   -5.2,   -5.0,   -5.1,   -4.7,   -4.6,   -4.6,   -4.1,   -4.5,   -4.3,   -4.3,   -4.3,   -4.2,   -4.0,   -4.2,   -4.5,   -4.1,   -4.0,   -3.8,   -3.6,   -3.4,   -3.3,   -3.3,   -3.3,  999.0,  999.0,   -1.7,   -1.2,   -1.1,   -1.0,   -0.8,   -0.7,   -0.6,   -0.6,   -0.5,   -0.4,   -0.2,   -0.0,   -0.0,    0.0,    0.1,    0.1,    0.1,    0.2,  999.0,   -0.0,   -0.0,    0.0,  999.0,  999.0,  999.0,  999.0,  999.0,    0.0,    0.2,    0.1,    0.1,    0.2,  999.0,  999.0,    0.0,  999.0,  999.0,  999.0,    0.1,   -0.1,  999.0,  999.0,  999.0,   -1.3,   -1.4,   -1.2,   -1.3,   -1.3,   -1.2,   -1.2,   -1.1,   -1.1,   -1.2
2010/06/03 05:10,   -2.0,   -2.8,   -1.9,   -1.9,   -2.1,   -2.2,   -1.4,   -0.8,   -0.9,   -1.0,   -1.4,   -1.4,  999.0,  999.0,   -0.0,  999.0,    0.0,   -0.9,   -1.3,   -0.8,   -0.0,   -0.8,   -1.6,   -1.0,   -1.3,   -1.3,   -1.2,   -1.6,   -1.6,   -1.1,   -1.2,   -1.7,   -1.3,   -1.6,   -2.2,   -2.4,   -2.1,   -1.7,   -1.6,   -1.3,   -1.3,   -1.4,   -1.0,   -1.0,   -0.9,   -0.7,   -0.6,   -0.7,   -0.6,   -0.5,   -0.4,   -0.3,   -0.3,   -0.2,   -0.2,   -0.1,   -0.0,   -0.0,    0.0,    0.0,   -0.0,   -0.0,    0.3,    0.1,    0.0,   -0.0,   -0.0,    0.3,    0.4,    0.4,    0.2,  999.0,    0.1,    0.0,    0.1,    0.2,    0.1,  999.0,  999.0,    0.1,   -0.1,    0.0,   -0.0,   -0.0,   -0.1,  999.0,  999.0,  999.0,  999.0,    0.1,  999.0,  999.0,  999.0,  999.0,  999.0,  999.0,  999.0,  999.0
2010/06/03 05:20,   -0.0,   -0.0,   -0.1,   -0.1,   -0.0,   -0.1,   -0.1,   -0.2,   -0.2,   -0.2,   -0.1,   -0.2,   -0.2,   -0.1,   -0.1,   -0.2,   -0.2,   -0.1,   -0.1,   -0.1,    0.0,    0.1,    0.1,   -0.0,    0.0,    0.2,    0.3,    0.2,    0.2,    0.2,    0.2,    0.2,    0.1,    0.2,    0.2,    0.2,    0.2,    0.1,    0.0,   -0.1,   -0.2,   -0.3,   -0.3,   -0.2,  999.0,   -0.9,   -0.9,   -1.1,   -0.8,   -0.6,   -0.5,   -0.3,   -0.3,   -0.2,   -0.1,   -0.0,   -0.0,   -0.0,   -0.1,   -0.0,    0.0,   -0.0,   -0.0,   -0.1,   -0.0,    0.0,    0.0,    0.0,    0.1,    0.3,  999.0,  999.0,    0.1,   -0.0,    0.1,    0.2,    0.0,   -0.0,   -0.1,    0.0,   -0.0,   -0.0,   -0.0,   -0.0,    0.0,    0.0,    0.0,   -0.1,    0.1,  999.0,  999.0,    0.0,  999.0,  999.0,  999.0,  999.0,  999.0,  999.0
2010/06/03 05:30,   -0.0,   -0.1,   -0.0,   -0.0,   -0.0,    0.0,   -0.0,   -0.0,    0.1,    0.1,    0.0,   -0.0,    0.2,    0.0,    0.0,    0.1,    0.1,    0.1,    0.1,   -0.0,   -0.0,    0.0,   -0.2,   -0.2,   -0.2,    0.1,   -0.0,    0.0,    0.0,    0.0,    0.0,   -0.0,   -0.0,   -0.2,  999.0,  999.0,  999.0,   -0.9,   -0.9,   -0.8,   -0.7,   -0.7,   -0.6,   -0.9,   -0.6,   -0.6,   -0.8,   -0.4,   -0.3,   -0.3,   -0.1,   -0.1,   -0.1,   -0.0,    0.0,    0.0,    0.0,    0.0,    0.0,   -0.0,   -0.0,    0.0,    0.0,   -0.0,    0.2,    0.1,  999.0,    0.0,   -0.2,   -0.1,   -0.2,  999.0,  999.0,   -0.1,   -0.1,  999.0,   -0.0,    0.1,  999.0,   -0.0,    0.1,   -0.0,   -0.0,    0.0,   -0.0,   -0.0,  999.0,  999.0,    0.1,  999.0,  999.0,   -0.2,  999.0,  999.0,  999.0,  999.0,  999.0,  999.0
2010/06/03 05:40,   -0.0,   -0.0,   -0.1,   -0.1,   -0.1,   -0.1,   -0.2,   -0.1,   -0.2,   -0.3,   -0.3,   -0.2,   -0.2,   -0.1,   -0.1,   -0.2,   -0.2,   -0.2,   -0.1,   -0.1,   -0.1,   -0.1,   -0.2,   -0.2,   -0.1,   -0.1,   -0.1,   -0.1,   -0.0,   -0.1,   -0.1,   -0.1,   -0.0,   -0.1,    0.1,   -0.1,   -0.1,   -0.1,   -0.2,   -0.0,  999.0,  999.0,    0.0,   -0.0,   -0.0,   -0.2,   -0.6,   -0.4,   -0.3,   -0.2,   -0.1,   -0.1,   -0.1,   -0.0,   -0.5,   -0.5,   -0.5,   -0.3,   -0.2,   -0.3,   -0.2,   -0.2,   -0.4,   -0.3,   -0.1,    0.0,   -0.1,   -0.1,   -0.1,   -0.1,   -0.2,  999.0,  999.0,  999.0,  999.0,  999.0,  999.0,   -0.1,    0.0,  999.0,  999.0,  999.0,    0.1,  999.0,   -0.0,    0.0,  999.0,    0.0,  999.0,  999.0,  999.0,  999.0,  999.0,  999.0,    0.1,  999.0,  999.0,  999.0
2010/06/03 05:50,   -0.1,   -0.2,   -0.1,   -0.1,   -0.0,   -0.0,   -0.1,   -0.1,   -0.0,   -0.7,   -0.1,   -0.1,   -0.1,   -0.0,   -0.1,   -0.0,   -0.0,   -0.0,    0.0,    0.0,   -0.2,   -0.1,   -0.2,   -0.1,   -0.1,   -0.2,   -0.1,   -0.1,   -0.2,   -0.1,   -0.1,   -0.1,   -0.2,   -0.2,   -0.2,   -0.1,    0.0,    0.0,   -0.1,   -0.0,    0.0,   -0.0,    0.0,   -0.0,    0.0,    0.0,   -0.1,    0.0,    0.0,    0.0,   -0.0,   -0.0,    0.0,   -0.0,    0.0,   -0.0,   -0.0,    0.0,    0.0,   -0.0,   -0.0,    0.0,   -0.0,    0.0,    0.0,    0.0,   -0.1,   -0.1,   -0.1,   -0.1,  999.0,  999.0,  999.0,  999.0,  999.0,  999.0,    0.0,    0.0,   -0.1,  999.0,  999.0,    0.0,  999.0,  999.0,    0.0,  999.0,   -0.0,  999.0,  999.0,  999.0,  999.0,  999.0,  999.0,  999.0,    0.0,  999.0,  999.0,  999.0
2010/06/03 06:00,    0.1,    0.2,   -0.1,   -0.0,   -0.0,   -0.1,   -0.1,   -0.0,   -0.0,  999.0,   -0.0,   -0.0,    0.0,   -0.0,    0.0,    0.1,    0.0,   -0.0,    0.0,    0.1,    0.1,    0.1,    0.2,    0.2,    0.2,    0.1,    0.1,    0.1,    0.1,    0.1,    0.0,    0.0,   -0.1,    0.0,   -0.0,    0.1,    0.1,   -0.0,   -0.0,    0.0,    0.0,    0.0,   -0.0,    0.1,    0.0,    0.1,    0.1,   -0.0,    0.0,   -0.0,    0.0,    0.0,   -0.0,   -0.0,    0.0,    0.0,   -0.0,    0.0,   -0.0,    0.0,   -0.0,   -0.0,   -0.1,   -0.1,   -0.2,   -0.1,   -0.2,  999.0,   -0.4,  999.0,  999.0,  999.0,  999.0,  999.0,  999.0,  999.0,  999.0,  999.0,  999.0,  999.0,  999.0,  999.0,   -0.1,  999.0,   -0.0,  999.0,  999.0,   -0.0,  999.0,  999.0,  999.0,  999.0,  999.0,   -0.0,  999.0,  999.0,  999.0,  999.0
2010/06/03 06:10,   -0.1,   -0.2,   -0.2,   -0.2,   -0.2,   -0.1,   -0.1,   -0.0,    0.0,  999.0,    0.1,    0.1,    0.1,   -0.0,    0.1,    0.1,    0.2,    0.0,    0.0,    0.0,    0.0,    0.0,    0.0,   -0.0,   -0.1,   -0.0,   -0.0,   -0.0,   -0.0,    0.0,   -0.0,   -0.0,   -0.1,   -0.1,   -0.1,   -0.1,    0.0,   -0.1,   -0.1,   -0.1,   -0.1,   -0.2,   -0.2,   -0.3,   -0.3,   -0.3,   -0.3,   -0.2,   -0.1,   -0.2,   -0.0,    0.0,   -0.0,    0.0,    0.0,    0.0,    0.0,    0.0,   -0.0,    0.0,   -0.0,    0.0,   -0.0,    0.0,    0.0,   -0.1,   -0.0,    0.1,    0.1,    0.0,  999.0,   -0.1,  999.0,  999.0,  999.0,  999.0,    0.2,  999.0,  999.0,  999.0,  999.0,  999.0,  999.0,  999.0,  999.0,  999.0,    0.1,    0.0,  999.0,  999.0,  999.0,  999.0,  999.0,  999.0,  999.0,  999.0,  999.0,  999.0
2010/06/03 06:20,   -0.1,   -0.2,   -0.1,    0.1,   -0.1,    0.0,    0.0,   -0.0,    0.0,    0.0,   -0.0,   -0.0,    0.0,    0.0,    0.0,   -0.0,    0.0,   -0.0,    0.0,    0.1,    0.1,    0.2,    0.1,    0.1,    0.1,    0.1,    0.1,    0.1,    0.1,    0.1,    0.1,    0.0,    0.0,    0.0,    0.1,    0.1,    0.1,   -0.1,   -0.0,   -0.0,   -0.2,   -0.1,   -0.3,   -0.4,   -0.3,   -0.6,   -0.3,   -0.3,   -0.2,   -0.1,    0.0,   -0.0,    0.0,   -0.0,    0.0,    0.0,   -0.0,    0.0,    0.1,    0.0,    0.0,   -0.0,   -0.3,   -0.3,  999.0,  999.0,    0.1,    0.1,  999.0,  999.0,   -0.1,    0.1,  999.0,   -0.0,  999.0,  999.0,    0.4,  999.0,  999.0,  999.0,  999.0,  999.0,  999.0,  999.0,  999.0,  999.0,  999.0,  999.0,  999.0,  999.0,  999.0,  999.0,  999.0,  999.0,  999.0,  999.0,  999.0,  999.0
2010/06/03 06:30,   -0.0,   -0.0,   -0.1,   -0.1,   -0.0,   -0.0,   -0.0,   -0.1,   -0.0,   -0.2,   -0.0,   -0.0,   -0.0,   -0.1,   -0.0,   -0.1,   -0.1,    0.0,    0.2,    0.3,    0.2,    0.2,    0.2,    0.2,    0.1,   -0.0,   -0.0,   -0.1,   -0.0,   -0.1,   -0.1,    0.1,    0.1,    0.1,    0.1,    0.1,    0.1,    0.0,    0.0,   -0.0,   -0.1,   -0.4,   -0.5,   -0.5,   -0.4,   -0.4,   -0.2,   -0.1,   -0.0,   -0.0,   -0.0,   -0.0,   -0.0,   -0.0,   -0.1,    0.0,    0.1,    0.0,    0.0,    0.0,   -0.0,    0.0,   -0.1,    0.0,    0.0,  999.0,   -0.0,   -0.0,  999.0,  999.0,    0.0,  999.0,  999.0,   -0.1,  999.0,  999.0,  999.0,  999.0,  999.0,  999.0,  999.0,  999.0,  999.0,  999.0,  999.0,  999.0,  999.0,  999.0,  999.0,  999.0,  999.0,  999.0,  999.0,  999.0,  999.0,  999.0,  999.0,  999.0
2010/06/03 06:40,    0.0,   -0.1,   -0.1,    0.0,   -0.0,    0.1,    0.3,    0.4,    0.3,    0.3,    0.3,    0.2,    0.0,    0.0,   -0.0,   -0.0,   -0.1,   -0.1,   -0.2,   -0.2,   -0.2,   -0.1,    0.1,    0.2,    0.1,    0.2,    0.1,    0.0,    0.3,    0.1,    0.1,    0.1,    0.1,   -0.1,   -0.1,   -0.1,   -0.2,   -0.3,   -0.7,   -0.6,   -0.6,   -0.6,   -0.5,   -0.5,   -0.4,   -0.4,   -0.4,   -0.4,   -0.3,   -0.1,   -0.1,   -0.0,   -0.0,   -0.1,   -0.1,    0.0,   -0.0,    0.1,    0.0,    0.0,   -0.0,  999.0,   -0.0,    0.1,   -0.0,  999.0,    0.2,  999.0,  999.0,  999.0,    0.2,    0.3,  999.0,    0.1,    0.1,    0.1,    0.1,  999.0,  999.0,  999.0,  999.0,  999.0,  999.0,  999.0,  999.0,   -0.0,  999.0,  999.0,  999.0,  999.0,  999.0,  999.0,  999.0,  999.0,  999.0,  999.0,  999.0,  999.0
2010/06/03 06:50,   -0.1,   -0.2,   -0.3,   -0.3,   -0.1,   -0.0,   -0.0,    0.1,    0.2,    0.2,    0.2,    0.3,    0.2,    0.1,    0.2,    0.2,    0.1,    0.1,    0.1,    0.1,    0.1,    0.2,    0.2,    0.2,    0.1,    0.1,    0.2,    0.1,    0.1,    0.0,    0.1,    0.0,   -0.0,    0.0,   -0.0,   -0.5,   -1.0,   -1.0,   -1.3,   -1.4,   -1.4,   -1.2,   -1.1,   -1.2,   -0.9,   -0.8,   -0.7,   -0.7,   -0.5,   -0.3,   -0.1,   -0.1,    0.0,   -0.1,    0.0,    0.0,    0.1,    0.1,    0.0,    0.0,   -0.0,    0.0,   -0.1,   -0.0,   -0.1,    0.3,    0.0,  999.0,  999.0,  999.0,  999.0,    0.0,  999.0,  999.0,    0.1,  999.0,  999.0,  999.0,  999.0,  999.0,  999.0,  999.0,  999.0,  999.0,  999.0,  999.0,  999.0,  999.0,    0.1,   -0.1,   -0.1,  999.0,  999.0,  999.0,  999.0,  999.0,  999.0,  999.0
2010/06/03 07:00,   -0.0,    0.1,   -0.0,   -0.1,   -0.0,   -0.0,   -0.0,   -0.1,   -0.0,   -0.0,    0.0,    0.0,    0.0,    0.0,   -0.0,   -0.0,   -0.1,   -0.1,   -0.1,   -0.0,   -0.0,    0.0,    0.1,   -0.0,    0.3,   -0.6,   -1.2,   -1.4,   -2.1,   -1.7,   -1.2,   -1.6,   -2.3,   -2.5,   -2.2,   -2.2,   -1.9,   -1.8,   -1.6,   -1.6,   -1.4,   -1.4,   -1.2,   -1.2,   -1.1,   -0.9,   -0.8,   -0.6,   -0.2,   -0.0,   -0.0,    0.0,   -0.0,    0.0,    0.0,    0.0,    0.1,    0.0,    0.0,    0.1,  999.0,    0.0,   -0.0,   -0.2,   -0.2,    0.1,  999.0,  999.0,  999.0,  999.0,  999.0,  999.0,  999.0,  999.0,  999.0,  999.0,  999.0,  999.0,  999.0,  999.0,  999.0,  999.0,  999.0,  999.0,  999.0,  999.0,  999.0,  999.0,    0.0,    0.0,  999.0,  999.0,  999.0,  999.0,  999.0,  999.0,  999.0,  999.0
2010/06/03 07:10,   -0.1,    0.1,    0.1,    0.2,    0.1,    0.1,    0.0,    0.1,    0.1,    0.0,   -0.0,   -0.0,   -0.0,   -0.1,   -0.1,  999.0,  999.0,   -1.3,  999.0,  999.0,  999.0,  999.0,  999.0,  999.0,  999.0,   -2.5,  999.0,  999.0,  999.0,   -3.6,   -3.9,   -4.0,   -3.6,   -3.1,   -2.8,   -2.7,   -2.5,   -2.2,   -2.5,   -1.6,   -2.0,   -1.9,   -1.1,   -1.1,   -1.0,   -0.9,   -0.6,   -0.4,   -0.2,   -0.2,   -0.1,    0.0,   -0.0,    0.0,   -0.0,    0.1,    0.1,    0.0,    0.0,    0.0,   -0.2,  999.0,   -0.1,   -0.2,   -0.1,   -0.2,   -0.2,  999.0,  999.0,  999.0,  999.0,  999.0,  999.0,  999.0,  999.0,  999.0,  999.0,  999.0,  999.0,  999.0,  999.0,  999.0,  999.0,  999.0,  999.0,  999.0,  999.0,  999.0,    0.1,  999.0,  999.0,  999.0,  999.0,  999.0,  999.0,  999.0,  999.0,  999.0
2010/06/03 07:20,   -0.0,    0.1,    0.0,    0.1,    0.1,    0.0,    0.1,    0.1,    0.1,    0.1,    0.1,    0.1,    0.1,    0.1,    0.1,    0.1,    0.1,   -0.0,   -0.1,   -0.1,   -0.2,   -0.1,   -0.0,   -0.0,   -0.1,   -0.2,   -0.2,   -0.2,   -0.1,   -0.1,   -0.1,   -0.1,   -0.1,   -0.0,   -0.1,   -0.2,   -0.3,   -0.4,   -0.2,   -0.3,   -0.3,   -0.6,   -0.7,   -0.6,   -0.3,   -0.3,   -0.2,   -0.1,   -0.1,    0.0,    0.0,    0.0,   -0.0,    0.0,    0.1,    0.1,    0.0,    0.0,    0.0,   -0.0,   -0.1,  999.0,   -0.1,   -0.1,   -0.0,    0.0,    0.1,  999.0,  999.0,  999.0,  999.0,  999.0,  999.0,  999.0,  999.0,  999.0,  999.0,  999.0,  999.0,  999.0,  999.0,  999.0,  999.0,  999.0,  999.0,  999.0,  999.0,  999.0,  999.0,   -0.0,  999.0,  999.0,  999.0,  999.0,  999.0,  999.0,  999.0,  999.0
2010/06/03 07:30,    0.0,   -0.0,    0.0,    0.0,    0.0,    0.0,    0.1,    0.2,    0.1,    0.1,   -0.0,   -0.2,   -0.2,    0.0,    0.2,    0.3,    0.2,    0.1,    0.0,   -0.1,   -0.0,   -0.0,   -0.1,   -0.0,   -0.0,   -0.0,  999.0,   -0.1,    0.2,    0.1,    0.0,    0.0,   -0.0,    0.0,    0.0,    0.0,    0.0,   -0.1,   -0.1,   -0.1,   -0.2,   -0.2,   -0.2,   -0.3,   -0.4,   -0.3,   -0.2,   -0.2,   -0.1,   -0.1,   -0.1,   -0.0,   -0.0,   -0.1,   -0.0,    0.0,    0.0,    0.0,    0.0,    0.0,    0.1,  999.0,    0.0,   -0.2,   -0.1,   -0.1,   -0.2,    0.0,  999.0,  999.0,  999.0,  999.0,  999.0,  999.0,    0.1,  999.0,  999.0,  999.0,  999.0,  999.0,  999.0,  999.0,  999.0,  999.0,  999.0,   -0.0,  999.0,  999.0,   -0.0,    0.0,  999.0,  999.0,  999.0,  999.0,  999.0,  999.0,  999.0,  999.0
2010/06/03 07:40,   -0.0,   -0.1,   -0.0,    0.1,    0.0,    0.0,    0.1,    0.1,    0.0,   -0.0,   -0.0,   -0.1,   -0.0,   -0.0,    0.0,    0.2,    0.1,    0.1,   -0.1,   -0.2,   -0.2,    0.0,    0.0,    0.1,    0.1,    0.1,  999.0,    0.2,    0.1,    0.1,    0.2,    0.2,    0.2,    0.1,    0.1,    0.0,    0.0,    0.0,   -0.0,   -0.0,   -0.1,   -0.0,   -0.1,   -0.1,   -0.1,   -0.1,   -0.1,   -0.1,   -0.1,   -0.1,   -0.1,    0.0,   -0.0,   -0.0,   -0.0,   -0.0,    0.0,    0.0,    0.1,    0.1,   -0.1,    0.1,  999.0,   -0.2,   -0.1,    0.0,   -0.0,   -0.1,  999.0,  999.0,  999.0,  999.0,  999.0,  999.0,    0.1,  999.0,  999.0,  999.0,  999.0,  999.0,  999.0,  999.0,  999.0,  999.0,  999.0,  999.0,  999.0,  999.0,  999.0,  999.0,  999.0,  999.0,  999.0,  999.0,  999.0,  999.0,  999.0,  999.0
2010/06/03 07:50,    0.1,    0.0,    0.1,    0.0,   -0.0,    0.0,    0.0,    0.0,    0.1,    0.2,    0.0,   -0.1,   -0.1,    0.0,    0.2,    0.2,    0.1,    0.1,    0.1,    0.0,   -0.0,   -0.1,   -0.1,    0.0,   -0.0,    0.0,   -0.2,   -0.1,   -0.4,   -0.5,   -0.3,   -0.1,   -0.0,    0.0,    0.1,    0.0,    0.1,    0.0,   -0.1,   -0.0,   -0.1,   -0.0,   -0.2,   -0.1,    0.0,   -0.1,   -0.2,   -0.2,   -0.1,    0.0,   -0.1,    0.1,    0.1,   -0.0,   -0.1,   -0.0,    0.1,    0.0,   -0.0,  999.0,    0.1,    0.0,  999.0,   -0.6,  999.0,   -0.3,  999.0,  999.0,  999.0,  999.0,  999.0,  999.0,  999.0,  999.0,   -0.2,  999.0,  999.0,  999.0,  999.0,  999.0,  999.0,  999.0,  999.0,  999.0,  999.0,  999.0,  999.0,    0.1,  999.0,   -0.0,  999.0,  999.0,  999.0,  999.0,  999.0,  999.0,  999.0,  999.0
2010/06/03 08:00,   -0.2,   -0.1,    0.0,   -0.1,   -0.1,    0.0,    0.0,    0.0,    0.0,    0.1,   -0.0,   -0.1,   -0.2,   -0.3,   -0.2,   -0.1,   -0.0,   -0.0,   -0.1,   -0.1,   -0.2,   -0.2,   -0.2,   -0.2,   -0.2,   -0.2,   -0.2,   -0.2,   -0.2,   -0.3,   -0.3,   -0.2,   -0.2,   -0.0,    0.1,    0.1,    0.2,    0.2,    0.1,    0.1,    0.0,    0.1,    0.1,    0.2,    0.1,   -0.0,   -0.0,   -0.0,    0.1,    0.0,    0.0,    0.1,  999.0,  999.0,    0.2,    0.2,    0.1,  999.0,   -0.0,    0.0,   -0.0,   -0.1,  999.0,  999.0,   -0.1,   -0.2,  999.0,  999.0,  999.0,  999.0,  999.0,  999.0,  999.0,  999.0,   -0.0,    0.1,  999.0,  999.0,  999.0,  999.0,  999.0,  999.0,  999.0,  999.0,  999.0,  999.0,  999.0,  999.0,  999.0,  999.0,  999.0,  999.0,  999.0,  999.0,  999.0,  999.0,  999.0,  999.0
2010/06/03 08:10,   -0.1,    0.0,    0.1,    0.3,    0.3,    0.1,    0.1,    0.0,    0.0,    0.1,   -0.0,   -0.1,   -0.1,    0.1,    0.2,    0.2,    0.1,    0.0,   -0.1,   -0.1,   -0.1,   -0.2,   -0.2,   -0.2,   -0.1,   -0.0,   -0.1,   -0.1,   -0.1,   -0.1,    0.0,    0.1,    0.1,    0.2,    0.2,    0.1,    0.2,    0.2,    0.1,    0.1,    0.1,    0.1,    0.1,    0.0,   -0.0,    0.1,  999.0,    0.0,    0.1,    0.0,   -0.0,   -0.0,   -0.0,    0.0,    0.2,    0.1,    0.1,   -0.0,    0.1,    0.1,    0.1,    0.1,  999.0,  999.0,    0.0,    0.1,    0.1,  999.0,  999.0,  999.0,  999.0,  999.0,    0.2,    0.2,    0.0,    0.1,  999.0,  999.0,  999.0,  999.0,    0.1,    0.1,  999.0,  999.0,  999.0,  999.0,  999.0,  999.0,  999.0,  999.0,  999.0,  999.0,  999.0,  999.0,  999.0,  999.0,  999.0,  999.0
2010/06/03 08:20,    0.1,    0.1,    0.1,    0.1,    0.2,    0.1,   -0.0,   -0.1,   -0.0,    0.0,   -0.1,   -0.2,   -0.1,    0.0,    0.2,    0.0,   -0.0,   -0.1,   -0.1,   -0.1,   -0.2,   -0.2,   -0.2,   -0.2,   -0.1,    0.0,   -0.0,   -0.0,   -0.0,   -0.1,   -0.1,   -0.1,   -0.1,   -0.1,   -0.2,   -0.2,   -0.1,   -0.0,   -0.1,   -0.0,   -0.1,   -0.2,   -0.2,   -0.2,   -0.1,   -0.0,   -0.1,   -0.0,   -0.0,    0.0,   -0.0,   -0.1,    0.0,    0.1,   -0.0,   -0.0,   -0.0,   -0.0,   -0.0,   -0.0,    0.1,    0.0,  999.0,  999.0,   -0.0,    0.0,  999.0,  999.0,  999.0,  999.0,  999.0,  999.0,  999.0,    0.3,   -0.0,   -0.0,  999.0,  999.0,  999.0,   -0.1,   -0.2,  999.0,  999.0,  999.0,  999.0,  999.0,  999.0,  999.0,  999.0,  999.0,  999.0,  999.0,  999.0,  999.0,  999.0,  999.0,  999.0,  999.0
2010/06/03 08:30,    0.0,   -0.0,   -0.0,   -0.0,   -0.0,   -0.1,   -0.1,   -0.1,   -0.1,   -0.1,   -0.0,   -0.0,   -0.0,   -0.0,    0.1,    0.2,    0.0,   -0.0,   -0.0,   -0.1,   -0.0,   -0.0,   -0.0,   -0.0,    0.1,    0.1,    0.1,    0.0,    0.0,    0.0,    0.0,    0.0,   -0.1,   -0.1,   -0.0,    0.0,   -0.0,   -0.1,   -0.0,   -0.1,   -0.1,   -0.0,   -0.1,   -0.1,   -0.0,   -0.1,  999.0,    0.0,   -0.0,   -0.0,    0.0,   -0.0,   -0.0,    0.0,    0.1,   -0.0,   -0.0,   -0.0,   -0.1,   -0.0,  999.0,  999.0,   -0.1,    0.1,    0.1,  999.0,  999.0,  999.0,  999.0,  999.0,  999.0,  999.0,  999.0,  999.0,  999.0,  999.0,  999.0,  999.0,  999.0,    0.0,   -0.2,  999.0,  999.0,  999.0,  999.0,  999.0,  999.0,  999.0,  999.0,  999.0,  999.0,  999.0,  999.0,  999.0,  999.0,  999.0,  999.0,  999.0
2010/06/03 08:40,   -0.1,   -0.0,   -0.0,   -0.1,   -0.0,   -0.1,   -0.1,   -0.0,   -0.0,    0.0,   -0.0,   -0.0,   -0.1,   -0.1,   -0.0,    0.0,    0.0,    0.0,    0.0,    0.1,    0.0,    0.0,    0.0,    0.1,    0.2,    0.1,    0.1,    0.1,    0.1,    0.0,    0.0,  999.0,  999.0,   -0.0,    0.1,    0.1,    0.0,   -0.0,    0.0,   -0.0,   -0.0,    0.0,   -0.0,    0.0,   -0.0,   -0.1,   -0.1,   -0.0,   -0.0,   -0.0,   -0.0,    0.0,    0.0,   -0.0,   -0.0,    0.0,   -0.0,   -0.0,   -0.0,   -0.0,    0.0,  999.0,  999.0,    0.0,   -0.0,   -0.1,  999.0,    0.0,   -0.0,  999.0,  999.0,  999.0,  999.0,  999.0,  999.0,  999.0,  999.0,  999.0,  999.0,  999.0,  999.0,  999.0,  999.0,  999.0,  999.0,  999.0,  999.0,  999.0,  999.0,  999.0,  999.0,  999.0,  999.0,  999.0,  999.0,  999.0,  999.0,  999.0
2010/06/03 08:50,   -0.2,   -0.2,   -0.1,   -0.1,   -0.1,   -0.0,    0.0,   -0.0,   -0.0,    0.0,   -0.0,   -0.1,   -0.0,   -0.3,   -0.1,   -0.2,   -0.2,   -0.1,   -0.1,   -0.0,   -0.1,   -0.1,   -0.1,   -0.1,   -0.2,   -0.2,   -0.2,   -0.2,   -0.2,   -0.1,   -0.1,   -0.1,   -0.1,   -0.0,    0.0,    0.1,    0.0,   -0.0,   -0.0,   -0.0,    0.0,    0.0,   -0.0,   -0.0,   -0.0,   -0.1,   -0.0,   -0.0,   -0.0,    0.0,    0.0,    0.0,    0.0,   -0.0,   -0.1,   -0.0,    0.0,   -0.0,    0.0,   -0.0,   -0.0,   -0.0,   -0.0,   -0.1,   -0.1,   -0.0,    0.0,   -0.1,   -0.2,  999.0,  999.0,  999.0,  999.0,  999.0,  999.0,  999.0,  999.0,  999.0,  999.0,  999.0,  999.0,  999.0,  999.0,  999.0,  999.0,  999.0,  999.0,  999.0,  999.0,  999.0,  999.0,  999.0,  999.0,  999.0,  999.0,  999.0,  999.0,  999.0
2010/06/03 09:00,    0.0,    0.0,    0.1,    0.1,    0.1,    0.2,    0.1,    0.1,    0.1,    0.1,    0.1,    0.1,    0.1,    0.2,    0.1,    0.1,    0.1,    0.0,    0.2,    0.0,   -0.1,   -0.1,   -0.1,   -0.4,   -0.4,   -0.4,   -0.4,   -0.3,   -0.2,   -0.1,   -0.1,    0.0,    0.1,    0.0,    0.1,    0.1,    0.1,    0.0,    0.0,    0.0,    0.0,    0.0,    0.0,   -0.0,   -0.0,    0.0,    0.1,    0.0,    0.0,   -0.0,    0.0,   -0.0,   -0.0,   -0.1,   -0.1,   -0.0,    0.0,   -0.0,    0.0,    0.0,    0.0,   -0.0,  999.0,   -0.2,   -0.1,  999.0,  999.0,   -0.1,   -0.0,  999.0,  999.0,  999.0,  999.0,  999.0,  999.0,  999.0,  999.0,  999.0,  999.0,  999.0,  999.0,  999.0,  999.0,  999.0,  999.0,  999.0,  999.0,  999.0,  999.0,  999.0,  999.0,  999.0,  999.0,  999.0,  999.0,  999.0,  999.0,  999.0
2010/06/03 09:10,   -0.2,    0.0,    0.2,    0.0,   -0.1,   -0.2,   -0.1,   -0.0,   -0.1,   -0.1,   -0.1,   -0.1,   -0.1,   -0.2,   -0.2,   -0.1,   -0.2,   -0.1,   -0.2,   -0.2,   -0.3,   -0.1,   -0.2,   -0.2,   -0.2,   -0.2,   -0.1,   -0.1,   -0.1,  999.0,   -0.0,   -0.1,   -0.1,   -0.1,   -0.2,   -0.1,    0.1,   -0.0,   -0.0,    0.0,    0.0,    0.0,    0.0,    0.0,   -0.0,   -0.0,   -0.0,   -0.1,   -0.0,   -0.0,   -0.0,   -0.0,   -0.1,   -0.1,   -0.1,   -0.0,    0.0,   -0.0,    0.0,    0.0,   -0.1,    0.0,    0.2,    0.1,   -0.0,  999.0,    0.0,  999.0,  999.0,  999.0,  999.0,  999.0,  999.0,  999.0,  999.0,  999.0,  999.0,  999.0,  999.0,  999.0,  999.0,  999.0,  999.0,  999.0,  999.0,  999.0,  999.0,  999.0,  999.0,  999.0,  999.0,  999.0,  999.0,  999.0,  999.0,  999.0,  999.0,  999.0
2010/06/03 09:20,   -0.3,   -0.2,   -0.0,   -0.0,   -0.1,   -0.1,   -0.1,   -0.0,   -0.0,   -0.0,    0.0,    0.0,   -0.0,    0.0,    0.1,   -0.0,   -0.1,   -0.1,   -0.1,   -0.1,   -0.1,   -0.1,   -0.1,   -0.1,   -0.0,   -0.1,   -0.1,   -0.1,   -0.1,   -0.1,   -0.1,   -0.1,   -0.1,  999.0,    0.0,    0.0,   -0.1,   -0.0,   -0.0,   -0.1,    0.0,   -0.0,    0.0,   -0.0,    0.0,   -0.0,  999.0,   -0.1,   -0.0,   -0.0,   -0.1,   -0.0,    0.0,   -0.0,    0.1,    0.0,    0.0,    0.0,    0.0,   -0.0,   -0.0,   -0.1,   -0.1,  999.0,  999.0,  999.0,  999.0,  999.0,  999.0,  999.0,  999.0,  999.0,  999.0,  999.0,  999.0,  999.0,  999.0,  999.0,  999.0,    0.2,  999.0,  999.0,  999.0,  999.0,  999.0,  999.0,  999.0,  999.0,  999.0,    0.1,  999.0,  999.0,  999.0,  999.0,  999.0,  999.0,  999.0,  999.0
2010/06/03 09:30,   -0.3,   -0.2,   -0.1,   -0.2,   -0.1,   -0.0,    0.0,   -0.1,   -0.0,   -0.1,    0.0,   -0.1,   -0.0,   -0.1,   -0.0,   -0.0,   -0.1,   -0.0,   -0.1,   -0.1,   -0.1,   -0.1,   -0.1,   -0.0,   -0.1,   -0.0,    0.0,    0.1,    0.1,    0.1,   -0.0,   -0.1,    0.1,    0.0,   -0.1,   -0.1,   -0.2,   -0.0,   -0.0,    0.0,   -0.0,   -0.0,    0.0,    0.0,   -0.0,    0.0,   -0.0,   -0.1,   -0.0,   -0.1,    0.0,   -0.0,   -0.0,   -0.1,    0.0,   -0.0,    0.1,    0.0,   -0.0,    0.0,   -0.2,   -0.4,   -0.2,   -0.1,  999.0,  999.0,  999.0,  999.0,  999.0,  999.0,  999.0,  999.0,  999.0,  999.0,  999.0,  999.0,  999.0,  999.0,  999.0,  999.0,  999.0,  999.0,  999.0,  999.0,  999.0,  999.0,  999.0,  999.0,  999.0,  999.0,  999.0,  999.0,  999.0,  999.0,  999.0,  999.0,  999.0,  999.0
2010/06/03 09:40,    0.2,   -0.1,   -0.0,   -0.1,   -0.1,    0.1,    0.1,    0.0,   -0.0,   -0.0,   -0.1,   -0.1,   -0.1,   -0.1,   -0.1,   -0.0,   -0.1,   -0.2,   -0.1,   -0.1,   -0.0,    0.1,   -0.0,    0.1,    0.2,    0.1,    0.1,    0.1,    0.0,   -0.1,   -0.1,   -0.0,   -0.2,   -0.3,   -0.2,    0.1,   -0.1,    0.0,   -0.0,   -0.0,   -0.0,   -0.0,   -0.0,   -0.0,    0.0,    0.0,  999.0,    0.0,   -0.0,   -0.0,    0.0,    0.0,    0.0,   -0.0,   -0.1,   -0.2,    0.1,    0.0,    0.0,   -0.0,   -0.1,   -0.1,  999.0,  999.0,  999.0,  999.0,  999.0,  999.0,  999.0,  999.0,  999.0,  999.0,   -0.1,  999.0,  999.0,  999.0,  999.0,  999.0,  999.0,  999.0,  999.0,  999.0,  999.0,  999.0,   -0.7,   -0.6,   -0.6,   -0.7,   -0.7,   -0.6,   -0.4,   -0.6,  999.0,   -0.3,  999.0,  999.0,  999.0,  999.0
2010/06/03 09:50,    0.4,    0.4,    0.1,    0.2,    0.1,   -0.0,   -0.0,   -0.0,   -0.1,    0.1,    0.1,   -0.1,    0.0,    0.0,   -0.0,   -0.1,   -0.1,   -0.1,   -0.0,   -0.1,   -0.0,    0.0,    0.0,    0.1,    0.1,    0.1,    0.1,    0.1,    0.1,    0.0,   -0.0,   -0.0,   -0.2,   -0.3,   -0.4,   -0.2,   -0.2,   -0.0,    0.0,   -0.0,   -0.0,   -0.0,   -0.1,   -0.1,    0.0,    0.0,    0.0,    0.0,    0.0,   -0.0,    0.0,    0.0,    0.0,   -0.0,    0.0,    0.0,    0.0,   -0.0,   -0.0,   -0.1,   -0.0,   -0.1,    0.0,  999.0,  999.0,  999.0,   -0.1,  999.0,  999.0,  999.0,  999.0,  999.0,   -0.1,   -0.0,  999.0,  999.0,  999.0,  999.0,  999.0,  999.0,  999.0,  999.0,  999.0,  999.0,  999.0,   -0.6,   -0.5,   -0.7,   -0.6,   -0.6,   -0.7,   -0.7,   -0.7,   -0.7,   -0.6,   -0.5,   -0.6,   -0.6
2010/06/03 10:00,    0.2,    0.4,    0.4,    0.4,    0.2,    0.4,    0.1,   -0.1,   -0.1,    0.0,    0.0,    0.0,   -0.0,   -0.0,   -0.1,   -0.0,   -0.0,   -0.0,   -0.1,    0.0,    0.0,    0.1,    0.1,    0.2,    0.2,    0.2,    0.2,    0.2,    0.2,    0.2,    0.1,    0.1,    0.1,    0.1,   -0.1,   -0.0,    0.1,    0.0,    0.0,   -0.0,    0.0,    0.0,    0.0,    0.0,    0.0,    0.1,    0.0,   -0.0,   -0.0,   -0.0,    0.0,    0.0,    0.0,    0.0,    0.0,   -0.0,   -0.0,   -0.0,    0.0,    0.0,    0.0,  999.0,  999.0,  999.0,  999.0,    0.0,    0.0,  999.0,  999.0,  999.0,   -0.1,   -0.1,    0.0,  999.0,  999.0,  999.0,  999.0,  999.0,  999.0,  999.0,  999.0,   -0.8,   -0.8,   -0.9,   -0.9,   -0.9,   -0.9,   -0.9,   -0.9,   -0.9,   -0.9,   -0.9,   -0.9,   -0.9,   -0.8,   -0.8,   -0.7,   -0.5
2010/06/03 10:10,  999.0,    1.1,    1.2,    0.7,    0.5,    1.1,    0.8,    0.6,   -0.1,    0.3,   -0.1,   -0.0,   -0.0,    0.1,    0.1,    0.1,    0.1,    0.2,    0.3,    0.2,    0.3,    0.2,    0.3,    0.3,    0.2,    0.2,    0.2,    0.3,    0.2,    0.1,    0.1,    0.1,    0.1,    0.0,   -0.1,    0.1,    0.2,    0.1,    0.0,    0.0,    0.0,    0.1,    0.1,    0.1,   -0.0,    0.0,    0.1,   -0.0,   -0.0,   -0.0,   -0.0,   -0.0,    0.0,   -0.0,   -0.1,    0.0,   -0.0,    0.0,   -0.0,    0.0,   -0.0,    0.0,   -0.2,  999.0,   -0.2,   -0.0,  999.0,  999.0,  999.0,  999.0,  999.0,  999.0,   -0.3,  999.0,  999.0,  999.0,  999.0,   -1.0,   -1.0,   -1.1,   -1.1,   -1.1,   -1.1,   -1.1,   -1.1,   -1.1,   -1.1,   -1.1,   -1.0,   -1.0,   -0.9,   -0.9,   -0.9,   -0.9,  999.0,   -0.7,  999.0,  999.0
2010/06/03 10:20,    0.3,    0.4,    0.3,    0.1,    0.1,   -0.2,   -0.5,  999.0,   -0.5,   -0.4,   -0.3,   -0.3,   -0.2,   -0.1,   -0.2,   -0.2,   -0.0,   -0.0,   -0.0,   -0.0,    0.0,   -0.0,    0.0,    0.0,    0.1,    0.0,   -0.0,   -0.0,   -0.0,    0.1,    0.0,    0.0,    0.0,    0.1,   -0.0,   -0.1,   -0.1,   -0.0,   -0.1,   -0.0,   -0.0,    0.0,    0.0,    0.0,   -0.0,   -0.0,  999.0,   -0.0,   -0.0,    0.0,   -0.0,   -0.0,   -0.0,    0.0,    0.1,   -0.0,    0.0,   -0.0,   -0.0,    0.0,  999.0,  999.0,    0.0,   -0.0,  999.0,  999.0,  999.0,  999.0,  999.0,   -0.7,   -0.9,   -0.8,   -0.6,   -0.6,   -0.7,   -0.8,   -0.9,   -1.1,   -1.1,   -1.1,   -1.1,   -1.0,   -1.0,   -0.9,   -0.9,   -0.9,   -1.0,   -1.0,   -0.9,   -0.9,   -0.9,   -0.9,  999.0,   -0.7,   -1.0,   -0.9,   -0.9,   -0.8
2010/06/03 10:30,   -0.2,    0.2,    0.4,    0.4,   -0.0,    0.2,    0.2,   -0.0,   -0.0,   -0.2,   -0.2,   -0.1,   -0.1,   -0.1,   -0.2,   -0.2,   -0.1,   -0.0,   -0.1,   -0.1,   -0.1,   -0.0,    0.0,   -0.0,   -0.1,   -0.3,   -0.2,   -0.3,   -0.3,   -0.2,   -0.2,   -0.3,  999.0,   -0.2,   -0.1,   -0.2,   -0.1,   -0.0,    0.0,    0.0,    0.0,   -0.1,    0.0,   -0.0,   -0.0,   -0.0,   -0.0,    0.0,   -0.0,    0.1,    0.0,   -0.0,   -0.0,    0.0,    0.1,   -0.0,    0.1,   -0.0,    0.0,   -0.0,  999.0,  999.0,   -0.0,    0.0,   -0.0,  999.0,  999.0,  999.0,  999.0,   -0.7,   -0.9,  999.0,  999.0,  999.0,   -0.3,   -0.5,   -0.4,   -0.9,   -1.0,   -1.0,   -1.0,   -0.9,   -0.9,   -0.9,   -0.9,   -0.9,   -0.9,   -0.9,   -0.8,   -0.8,   -0.8,   -0.8,   -0.8,   -0.8,   -0.8,   -0.8,   -0.8,   -0.7
2010/06/03 10:40,    0.1,   -0.0,   -0.1,    0.1,    0.3,    0.2,    0.1,    0.2,    0.1,    0.0,    0.0,    0.0,    0.0,   -0.1,   -0.1,   -0.1,   -0.2,   -0.1,   -0.2,   -0.1,   -0.1,   -0.0,    0.0,    0.0,    0.0,   -0.0,   -0.1,   -0.0,   -0.1,   -0.2,   -0.3,   -0.1,  999.0,   -0.1,   -0.2,   -0.1,   -0.1,   -0.0,   -0.0,   -0.0,   -0.0,   -0.0,   -0.1,   -0.0,   -0.0,    0.0,    0.0,    0.0,    0.0,    0.0,   -0.0,   -0.0,    0.0,    0.0,   -0.0,    0.0,    0.1,   -0.1,   -0.1,   -0.2,  999.0,   -1.2,  999.0,  999.0,  999.0,  999.0,   -1.3,   -1.0,   -1.0,   -0.9,   -0.7,   -0.5,   -0.6,   -0.3,   -0.5,   -0.7,   -0.8,   -0.7,   -0.7,   -0.7,   -0.6,   -0.6,   -0.6,   -0.7,   -0.7,   -0.7,   -0.7,   -0.7,   -0.7,   -0.7,   -0.4,   -0.6,  999.0,  999.0,  999.0,  999.0,  999.0,  999.0
2010/06/03 10:50,    0.2,    0.2,    0.2,    0.6,    0.1,   -0.2,    0.1,   -0.2,   -0.2,   -0.1,   -0.1,   -0.1,   -0.1,   -0.2,   -0.3,   -0.2,   -0.2,   -0.3,   -0.4,   -0.3,   -0.3,   -0.1,   -0.1,   -0.2,   -0.2,   -0.1,   -0.0,    0.0,    0.1,    0.1,    0.2,    0.2,    0.2,    0.3,    0.2,    0.0,    0.1,    0.0,    0.0,    0.0,    0.0,   -0.0,    0.0,   -0.0,   -0.0,    0.0,    0.1,   -0.0,   -0.0,   -0.0,   -0.0,   -0.0,   -0.0,   -0.0,   -0.1,   -0.0,   -0.1,   -0.0,   -0.4,   -0.6,   -0.9,   -1.0,   -1.1,   -1.1,   -1.1,   -1.0,   -1.0,   -0.9,   -0.9,   -0.9,   -0.9,   -0.8,   -0.8,   -0.8,   -0.8,   -0.7,   -0.7,   -0.7,   -0.6,   -0.5,   -0.6,   -0.5,   -0.6,  999.0,  999.0,  999.0,   -1.0,  999.0,   -0.9,   -0.9,   -0.8,   -0.8,   -0.9,   -0.9,   -0.9,   -0.9,   -0.8,   -0.8
2010/06/03 11:00,   -0.1,   -0.1,    0.0,    0.0,    0.1,    0.4,    0.3,   -0.2,   -0.3,   -0.4,   -0.2,   -0.1,   -0.2,   -0.2,   -0.4,   -0.3,   -0.3,   -0.2,   -0.3,   -0.3,   -0.3,   -0.3,   -0.1,   -0.0,   -0.0,   -0.0,   -0.0,    0.1,    0.1,    0.1,    0.0,    0.2,    0.0,  999.0,    0.1,  999.0,    0.0,    0.0,    0.0,    0.0,    0.0,   -0.0,    0.0,    0.0,   -0.0,   -0.0,  999.0,   -0.0,   -0.0,    0.0,    0.0,    0.0,   -0.0,   -0.0,    0.0,   -0.0,    0.0,   -0.0,   -0.2,   -0.6,   -0.8,   -0.9,   -0.9,   -0.9,   -0.9,   -0.9,   -0.9,   -0.9,   -0.9,   -0.9,   -0.8,   -0.8,   -0.8,   -0.7,   -0.9,  999.0,  999.0,  999.0,  999.0,  999.0,  999.0,   -1.0,   -1.0,   -1.1,   -0.9,   -0.9,   -1.0,   -1.0,   -1.0,   -1.0,   -1.0,   -1.0,   -1.0,   -0.9,   -0.9,   -0.8,   -0.8,   -0.8
2010/06/03 11:10,    0.3,    0.4,    0.3,    0.2,    0.0,   -0.1,   -0.3,   -0.3,   -0.3,   -0.2,   -0.2,   -0.1,   -0.1,   -0.1,   -0.3,   -0.1,   -0.2,   -0.2,   -0.4,   -0.3,   -0.3,   -0.1,   -0.1,   -0.0,   -0.0,   -0.0,   -0.0,   -0.0,    0.0,    0.0,    0.1,   -0.0,    0.1,    0.2,  999.0,   -0.0,    0.0,    0.0,   -0.0,   -0.0,   -0.0,    0.0,   -0.1,   -0.0,   -0.1,   -0.0,  999.0,   -0.1,   -0.0,   -0.1,   -0.1,   -0.0,   -0.0,   -0.0,   -0.0,   -0.0,   -0.0,   -0.0,   -0.1,   -0.6,   -1.1,   -1.2,   -1.2,   -1.2,   -1.1,   -1.0,   -1.0,   -1.0,   -1.0,   -1.0,   -0.9,   -0.8,   -0.7,   -0.8,  999.0,  999.0,  999.0,  999.0,  999.0,  999.0,  999.0,  999.0,   -1.0,   -1.0,   -0.9,   -0.9,   -1.0,   -1.0,   -0.9,   -0.9,   -0.9,   -0.8,   -0.8,   -0.8,   -0.8,   -0.8,   -0.7,   -0.7
2010/06/03 11:20,    0.2,   -0.1,   -0.1,    0.0,   -0.1,    0.0,   -0.1,   -0.0,   -0.4,   -0.5,  999.0,   -0.1,   -0.2,   -0.2,   -0.2,   -0.1,   -0.1,   -0.1,   -0.0,    0.0,    0.0,    0.1,    0.0,    0.1,    0.3,    0.4,    0.4,    0.4,    0.4,    0.4,    0.2,    0.1,    0.1,    0.1,    0.2,   -0.0,    0.0,    0.0,    0.0,    0.0,   -0.0,    0.0,   -0.1,   -0.0,   -0.0,   -0.0,  999.0,   -0.0,   -0.0,   -0.1,   -0.0,    0.0,   -0.0,   -0.0,   -0.0,   -0.0,   -0.0,   -0.0,   -0.0,   -0.2,   -0.4,   -0.6,   -1.1,   -1.1,   -1.1,   -1.1,   -1.0,   -1.0,   -1.0,   -1.0,   -1.0,   -1.0,   -0.9,   -0.9,   -0.8,   -0.8,  999.0,  999.0,  999.0,  999.0,   -0.9,   -1.0,   -1.0,   -1.1,   -1.0,   -1.0,   -1.1,   -1.1,   -1.1,   -1.0,   -1.0,   -1.0,   -0.9,   -0.9,   -0.9,   -0.9,   -0.9,   -0.9
2010/06/03 11:30,    0.0,    0.1,   -0.0,   -0.1,   -0.0,    0.1,    0.0,    0.2,   -0.2,   -0.1,   -0.2,   -0.2,   -0.0,    0.1,    0.1,   -0.0,   -0.0,   -0.0,   -0.1,   -0.0,   -0.0,   -0.0,   -0.1,   -0.1,    0.0,    0.1,    0.1,    0.2,    0.0,    0.3,    0.3,    0.0,    0.0,    0.0,   -0.1,   -0.2,   -0.1,   -0.0,    0.0,   -0.0,    0.0,   -0.0,   -0.0,   -0.0,    0.0,   -0.0,  999.0,   -0.0,   -0.0,   -0.0,   -0.0,    0.0,   -0.0,   -0.0,   -0.0,   -0.0,   -0.0,    0.0,   -0.1,   -0.5,   -0.5,   -1.1,   -1.1,   -0.9,   -1.1,   -1.1,   -1.0,   -1.0,   -1.0,   -1.0,   -1.1,   -1.1,   -1.1,   -1.1,   -1.1,   -1.1,   -1.1,   -1.1,   -1.1,   -1.1,   -1.2,   -1.2,   -1.2,   -1.2,   -1.1,   -1.1,   -1.1,   -1.1,   -1.0,   -1.0,   -1.0,   -1.0,   -0.9,   -0.9,   -0.9,   -0.9,   -0.9,   -0.8
2010/06/03 11:40,    0.0,    0.1,    0.0,    0.1,    0.1,    0.2,    0.3,    0.2,   -0.0,   -0.7,   -0.9,   -0.8,   -0.5,   -0.3,    0.1,   -0.1,   -0.3,   -0.2,   -0.2,   -0.1,   -0.1,    0.1,   -0.0,   -0.0,   -0.0,   -0.0,   -0.1,   -0.0,   -0.0,    0.1,    0.0,  999.0,  999.0,   -0.1,   -0.1,   -0.1,   -0.0,   -0.0,   -0.0,   -0.1,   -0.0,    0.0,   -0.0,   -0.0,   -0.0,   -0.0,   -0.1,   -0.0,    0.0,    0.0,   -0.0,   -0.0,   -0.0,   -0.1,   -0.0,   -0.0,   -0.0,   -0.1,   -0.2,   -0.3,   -0.6,   -0.8,   -0.9,   -0.9,   -0.9,   -1.0,   -1.0,   -1.2,   -1.2,   -1.1,   -1.2,   -1.2,   -1.2,   -1.2,   -1.3,   -1.3,   -1.3,   -1.3,   -1.3,   -1.3,   -1.3,   -1.3,   -1.3,   -1.3,   -1.3,   -1.3,   -1.2,   -1.2,   -1.2,   -1.1,   -1.1,   -1.1,   -1.0,   -1.0,   -1.0,   -1.0,   -1.0,  999.0
2010/06/03 11:50,    0.0,    0.1,    0.0,   -0.0,   -0.1,   -0.1,   -0.1,   -0.1,   -0.1,   -0.1,   -0.1,   -0.3,   -0.1,   -0.1,   -0.0,   -0.1,   -0.1,   -0.0,   -0.0,    0.0,    0.0,    0.0,    0.1,    0.2,    0.3,    0.4,    0.4,    0.4,    0.5,    0.6,  999.0,    0.3,    0.2,    0.1,    0.1,   -0.0,   -0.0,    0.0,    0.0,   -0.0,    0.0,    0.0,    0.0,    0.0,   -0.0,    0.0,    0.0,    0.0,   -0.0,   -0.0,    0.0,    0.0,   -0.0,   -0.0,   -0.0,   -0.1,   -0.3,   -0.7,   -0.8,   -0.9,   -1.0,   -1.0,   -1.0,   -1.0,   -1.1,   -1.1,   -1.2,   -1.2,   -1.3,   -1.2,   -1.2,   -1.2,   -1.2,   -1.2,   -1.2,   -1.2,   -1.2,   -1.2,   -1.2,   -1.3,   -1.3,   -1.2,   -1.3,   -1.3,   -1.3,   -1.3,   -1.3,   -1.2,   -1.2,   -1.2,   -1.1,   -1.0,   -1.0,   -1.0,   -1.0,   -1.0,   -1.0,   -1.0
2010/06/03 12:00,    0.1,    0.3,    0.1,    0.1,    0.2,    0.0,   -0.0,   -0.3,   -0.2,   -0.2,   -0.1,   -0.0,    0.0,    0.1,    0.1,    0.0,    0.0,    0.0,    0.0,    0.1,    0.2,    0.1,    0.0,    0.1,    0.2,    0.1,    0.3,    0.3,    0.4,    0.3,  999.0,    0.1,    0.2,    0.2,    0.2,    0.1,    0.0,   -0.0,   -0.0,   -0.0,    0.0,    0.0,    0.0,   -0.0,   -0.0,   -0.0,   -0.0,   -0.0,   -0.0,    0.0,   -0.0,   -0.0,   -0.3,   -1.2,   -1.2,   -1.3,   -1.3,   -1.2,   -1.2,   -1.2,   -1.2,   -1.1,   -1.2,   -1.2,   -1.2,   -1.2,   -1.2,   -1.2,   -1.3,   -1.3,   -1.3,   -1.3,   -1.3,   -1.3,   -1.3,   -1.2,   -1.2,   -1.2,   -1.2,   -1.1,   -1.1,   -1.1,   -1.1,   -1.1,   -1.0,   -1.0,   -1.0,   -1.1,   -1.0,   -1.0,   -1.0,   -1.0,   -1.0,  999.0,  999.0,  999.0,  999.0,  999.0
2010/06/03 12:10,    0.4,    0.7,    0.5,    0.3,    0.1,    0.1,   -0.1,   -0.1,   -0.3,   -0.3,   -0.1,    0.0,    0.1,    0.1,    0.1,    0.1,    0.3,    0.4,    0.3,    0.3,    0.4,    0.4,    0.3,    0.1,    0.1,    0.1,   -0.0,   -0.1,   -0.0,    0.3,    0.2,    0.2,    0.2,    0.2,   -0.1,  999.0,   -0.0,   -0.3,   -0.3,   -0.4,    0.0,   -0.0,   -0.1,   -0.7,   -0.8,   -0.9,   -0.2,   -0.1,   -0.0,   -0.7,   -0.1,   -0.7,   -1.0,   -0.8,   -0.7,   -0.9,  999.0,   -0.3,   -0.3,   -0.5,   -0.7,   -0.6,   -0.9,   -1.2,   -1.1,   -1.1,   -1.1,   -1.1,   -1.1,   -1.1,   -1.0,   -1.0,   -0.9,   -0.9,   -0.9,   -1.0,   -1.0,   -1.0,   -1.1,   -1.0,   -1.1,   -1.0,   -1.0,   -1.0,   -1.0,   -1.0,   -1.0,   -1.0,   -0.9,   -0.9,   -0.9,   -0.9,   -0.8,   -1.0,   -0.8,  999.0,  999.0,  999.0
2010/06/03 12:20,   -0.0,    0.4,    0.3,    0.2,    0.1,   -0.1,   -0.1,   -0.2,   -0.3,   -0.9,   -0.3,    0.5,   -0.1,    0.8,   -0.7,   -0.6,   -0.5,   -0.6,    0.2,   -0.4,   -0.4,   -0.5,   -0.5,   -0.5,   -0.5,   -0.5,    0.3,   -0.3,   -1.1,   -0.5,   -1.0,   -1.4,   -1.4,   -2.0,   -1.9,   -1.6,  999.0,   -1.2,   -2.4,  999.0,   -2.7,  999.0,   -2.9,   -4.1,   -4.3,   -4.0,   -3.9,   -3.5,   -3.7,   -4.0,   -4.3,   -4.2,   -3.8,   -3.0,   -2.7,  999.0,  999.0,  999.0,  999.0,  999.0,  999.0,  999.0,  999.0,   -3.2,   -1.5,   -1.3,   -1.4,   -1.4,   -1.4,   -1.5,   -1.4,   -1.4,   -1.4,   -1.5,   -1.4,   -1.4,   -1.4,   -1.4,   -1.4,   -1.3,   -1.2,   -1.2,   -1.3,   -1.2,   -1.2,   -1.2,   -1.2,   -1.1,  999.0,  999.0,  999.0,   -0.5,  999.0,  999.0,  999.0,  999.0,  999.0,  999.0
2010/06/03 12:30,   -7.1,   -6.1,  999.0,  999.0,   -5.7,   -6.4,   -6.4,   -6.4,   -4.3,   -4.5,   -4.3,   -2.9,   -3.0,   -6.9,  999.0,   -7.5,   -3.7,   -3.8,   -7.0,   -6.9,   -7.0,   -7.5,   -7.4,   -6.8,   -6.8,   -6.6,   -6.5,   -6.8,   -6.7,   -6.3,   -6.2,   -5.9,   -5.6,   -5.8,   -5.1,   -5.0,  999.0,  999.0,  999.0,  999.0,  999.0,   -5.9,    8.2,   -7.2,   -7.2,   -6.5,   -6.7,   -6.2,   -6.1,   -5.7,   -5.5,   -5.1,   -5.0,   -3.8,   -3.0,  999.0,   -3.7,   -2.0,   -3.8,   -3.5,   -2.0,   -2.4,   -1.6,   -2.5,   -1.1,   -0.9,   -0.9,   -0.4,   -1.0,   -1.1,    0.9,    0.9,  999.0,  999.0,  999.0,  999.0,  999.0,  999.0,  999.0,  999.0,  999.0,  999.0,  999.0,  999.0,  999.0,  999.0,  999.0,  999.0,  999.0,  999.0,  999.0,  999.0,    0.0,  999.0,  999.0,  999.0,  999.0,  999.0
2010/06/03 12:40,  999.0,  999.0,  999.0,  999.0,  999.0,  999.0,  999.0,   -5.3,   -4.6,   -5.8,   -4.9,   -4.9,   -3.8,  999.0,  999.0,   -3.8,   -4.5,  999.0,  999.0,  999.0,   -6.0,   -5.7,   -5.9,   -6.4,   -7.0,   -7.1,   -7.4,   -7.9,   -6.5,  999.0,  999.0,   -1.8,    1.4,   -6.4,   -6.2,   -4.5,  999.0,  999.0,  999.0,  999.0,   -2.6,  999.0,   -2.6,   -2.0,   -1.5,   -1.3,  999.0,   -0.7,   -2.4,   -2.6,   -1.7,   -2.2,   -1.0,  999.0,   -2.8,   -1.6,   -2.7,   -3.2,   -3.0,   -2.4,   -2.7,   -2.1,   -2.1,   -1.8,   -2.4,   -1.5,  999.0,  999.0,  999.0,   -1.5,   -0.4,    1.1,    0.4,    1.3,  999.0,  999.0,  999.0,  999.0,  999.0,  999.0,  999.0,  999.0,  999.0,  999.0,  999.0,   -0.0,  999.0,  999.0,    0.0,  999.0,  999.0,  999.0,  999.0,  999.0,  999.0,  999.0,  999.0,  999.0
2010/06/03 12:50,  999.0,  999.0,  999.0,  999.0,  999.0,  999.0,   -0.0,   -0.3,  999.0,    0.3,   -1.7,   -6.3,   -6.3,   -5.8,   -6.0,   -4.8,  999.0,   -5.7,  999.0,   -4.8,   -5.7,   -5.4,  999.0,  999.0,  999.0,  999.0,  999.0,   -4.8,  999.0,   -4.1,   -3.4,   -2.9,   -3.4,   -4.6,   -2.7,   -4.0,   -3.3,  999.0,   -2.6,  999.0,  999.0,   -1.0,   -0.8,  999.0,   -0.7,   -0.5,   -0.1,    0.1,    0.0,   -0.7,   -0.6,  999.0,  999.0,  999.0,  999.0,   -0.1,  999.0,   -0.0,   -0.1,   -0.0,   -0.1,    0.2,   -0.5,  999.0,    0.1,  999.0,  999.0,  999.0,  999.0,  999.0,    0.5,  999.0,  999.0,  999.0,  999.0,  999.0,  999.0,  999.0,  999.0,  999.0,  999.0,  999.0,  999.0,  999.0,    0.0,  999.0,  999.0,  999.0,  999.0,  999.0,  999.0,  999.0,    0.0,  999.0,  999.0,  999.0,  999.0,  999.0
2010/06/03 13:00,    0.2,    0.1,  999.0,    0.1,  999.0,  999.0,  999.0,  999.0,  999.0,  999.0,  999.0,  999.0,   -0.9,   -1.1,   -1.5,   -1.4,   -1.3,   -1.2,   -1.3,   -1.3,   -1.0,   -1.0,   -0.8,  999.0,  999.0,   -2.7,   -2.2,   -2.4,   -2.8,   -2.8,   -2.5,   -2.5,   -2.5,   -2.6,   -2.5,   -2.4,   -2.3,   -2.2,   -2.2,   -1.6,   -1.6,   -0.5,   -1.1,   -0.6,   -0.5,   -0.9,   -0.9,   -0.9,   -0.2,   -0.1,    0.0,   -0.1,   -0.2,   -0.1,   -0.1,   -0.1,   -0.1,   -0.1,   -0.1,   -0.1,   -0.0,   -0.0,    0.0,    0.4,  999.0,  999.0,  999.0,  999.0,  999.0,  999.0,  999.0,  999.0,  999.0,  999.0,  999.0,  999.0,  999.0,    0.1,  999.0,  999.0,  999.0,  999.0,  999.0,  999.0,  999.0,  999.0,   -0.1,    0.0,   -0.1,   -0.0,    0.0,    0.0,   -0.1,    0.0,  999.0,  999.0,    0.1,  999.0
2010/06/03 13:10,    0.2,    0.2,    0.3,    0.3,    0.2,    0.1,   -0.0,   -0.1,   -0.2,   -0.3,   -0.3,    0.1,    0.3,    0.1,   -0.3,   -0.2,   -0.1,   -0.2,   -0.3,   -0.3,   -0.4,   -0.5,   -0.5,   -0.6,   -0.6,   -0.4,   -0.5,   -0.5,   -0.4,  999.0,   -1.3,   -0.8,  999.0,   -0.1,   -0.1,   -0.7,   -0.3,   -0.1,   -0.0,   -0.1,   -0.1,   -0.2,   -0.3,   -0.4,   -0.2,   -0.3,   -0.2,   -0.3,   -0.4,   -0.2,   -0.3,   -0.2,  999.0,  999.0,  999.0,   -0.4,   -0.6,  999.0,  999.0,  999.0,  999.0,  999.0,  999.0,  999.0,  999.0,  999.0,  999.0,  999.0,  999.0,   -0.7,  999.0,  999.0,  999.0,  999.0,  999.0,  999.0,  999.0,  999.0,  999.0,  999.0,  999.0,  999.0,  999.0,  999.0,  999.0,  999.0,  999.0,  999.0,  999.0,  999.0,  999.0,  999.0,  999.0,  999.0,  999.0,  999.0,  999.0,  999.0
2010/06/03 13:20,    0.1,    0.4,    0.3,    0.3,    0.3,    0.2,    0.1,    0.1,   -0.0,   -0.1,    0.0,   -0.2,    0.1,    0.1,   -0.0,   -0.1,   -0.0,   -0.0,   -0.0,   -0.0,    0.0,    0.0,    0.1,    0.0,   -0.1,    0.0,    0.0,    0.2,    0.3,    0.0,    0.1,    0.0,    0.1,    0.1,    0.0,    0.1,    0.0,    0.0,    0.1,    0.1,    0.1,    0.0,   -0.0,    0.0,   -0.0,   -0.0,   -0.1,   -0.1,   -0.1,   -0.1,   -0.1,   -0.2,   -0.2,   -0.1,   -0.1,   -0.1,   -0.0,    0.1,    0.1,    0.2,    0.1,    0.2,    0.3,   -0.1,   -0.0,    0.1,    0.2,    0.4,  999.0,  999.0,  999.0,  999.0,  999.0,  999.0,   -0.1,  999.0,  999.0,  999.0,  999.0,  999.0,  999.0,  999.0,  999.0,  999.0,  999.0,  999.0,  999.0,    0.0,  999.0,  999.0,  999.0,  999.0,  999.0,  999.0,  999.0,  999.0,  999.0,  999.0
2010/06/03 13:30,   -0.0,    0.1,    0.1,    0.1,    0.1,    0.0,   -0.1,   -0.1,    0.1,   -0.3,   -0.4,   -0.4,   -0.4,   -0.2,   -0.2,   -0.1,   -0.1,   -0.0,   -0.0,    0.0,    0.0,    0.1,    0.2,    0.3,    0.1,    0.2,    0.1,    0.0,    0.3,    0.3,    0.3,    0.3,    0.4,    0.2,    0.4,    0.3,    0.4,    0.2,    0.1,    0.1,    0.0,    0.1,    0.1,    0.1,   -0.0,    0.1,    0.0,    0.1,    0.0,    0.0,   -0.0,    0.0,   -0.0,    0.0,    0.0,    0.0,    0.1,   -0.0,   -0.0,   -0.1,   -0.0,   -0.1,   -0.0,   -0.2,    0.0,  999.0,  999.0,  999.0,  999.0,  999.0,  999.0,  999.0,  999.0,  999.0,  999.0,  999.0,  999.0,  999.0,  999.0,  999.0,  999.0,  999.0,   -0.9,   -0.9,  999.0,  999.0,  999.0,   -0.1,  999.0,  999.0,  999.0,  999.0,    0.0,  999.0,  999.0,  999.0,    0.0,  999.0
2010/06/03 13:40,    0.0,   -0.1,    0.0,    0.0,   -0.1,   -0.1,   -0.0,   -0.1,   -0.2,   -0.2,   -0.3,   -0.3,   -0.2,   -0.1,   -0.1,   -0.0,   -0.1,    0.1,    0.1,    0.1,    0.1,    0.1,    0.1,    0.2,    0.1,   -0.1,   -0.2,   -0.0,    0.3,    0.4,    0.1,    0.2,    0.2,    0.1,    0.2,    0.1,    0.1,    0.1,   -0.0,    0.0,    0.2,    0.2,    0.0,    0.1,   -0.0,   -0.0,   -0.0,    0.0,    0.0,   -0.0,   -0.0,   -0.0,    0.0,   -0.0,   -0.0,   -0.0,   -0.0,   -0.0,   -0.0,   -0.0,    0.0,   -0.0,    0.0,  999.0,    0.1,  999.0,  999.0,   -1.0,   -0.9,   -0.8,   -0.9,   -1.0,   -1.1,   -1.0,   -1.0,   -0.9,   -0.9,   -0.7,   -0.7,   -0.7,   -0.7,   -0.7,   -0.7,   -0.7,   -0.5,   -0.7,  999.0,  999.0,  999.0,  999.0,  999.0,  999.0,  999.0,  999.0,  999.0,  999.0,  999.0,  999.0
2010/06/03 13:50,    0.2,   -0.2,   -0.6,   -0.6,   -0.2,   -0.8,   -0.7,   -1.4,   -1.4,   -1.4,   -1.4,   -1.2,   -0.6,   -1.3,   -1.3,   -1.3,   -1.4,   -1.3,   -1.2,   -1.7,   -1.4,   -1.4,   -1.6,   -1.5,   -1.3,   -1.2,   -1.3,   -1.4,   -1.5,   -1.2,   -0.6,   -0.7,   -1.1,   -0.6,   -0.5,   -0.3,   -0.4,    0.0,    0.1,    0.2,    0.4,    0.1,    0.2,    0.4,    0.6,    0.7,  999.0,  999.0,  999.0,  999.0,  999.0,   -2.9,  999.0,  999.0,   -3.2,   -3.9,   -2.2,    0.0,   -0.0,   -0.0,    0.0,   -2.9,  999.0,  999.0,  999.0,  999.0,  999.0,  999.0,  999.0,  999.0,  999.0,  999.0,  999.0,  999.0,  999.0,  999.0,   -1.3,   -1.5,   -1.2,   -1.3,   -1.2,   -1.1,   -0.8,   -0.9,   -0.9,   -0.8,  999.0,  999.0,  999.0,  999.0,  999.0,  999.0,  999.0,  999.0,  999.0,  999.0,  999.0,  999.0
2010/06/03 14:00,   -4.0,   -3.8,   -3.5,   -3.5,   -3.5,   -3.5,   -3.7,   -3.8,   -3.7,   -3.8,   -4.0,   -4.0,   -3.8,   -3.9,   -3.8,   -3.5,   -3.4,   -3.5,   -3.6,   -3.1,   -3.1,   -3.0,   -3.0,   -2.7,   -2.4,   -2.2,   -1.8,   -1.5,   -1.3,   -1.2,   -1.7,   -1.3,   -1.5,   -1.6,   -1.6,   -1.5,   -1.6,   -1.7,   -1.6,   -1.6,   -1.3,   -1.1,   -1.3,   -1.1,   -1.0,   -0.7,   -0.7,  999.0,  999.0,   -0.2,   -0.1,    0.0,  999.0,   -0.0,   -0.0,    0.0,   -0.0,   -0.0,    0.0,   -0.0,   -0.0,  999.0,  999.0,  999.0,  999.0,  999.0,  999.0,  999.0,  999.0,  999.0,  999.0,  999.0,  999.0,  999.0,  999.0,  999.0,  999.0,  999.0,  999.0,   -1.7,   -1.7,   -1.7,   -1.7,   -1.4,   -1.4,  999.0,   -1.1,  999.0,   -0.8,   -0.9,  999.0,  999.0,  999.0,  999.0,  999.0,  999.0,  999.0,  999.0
2010/06/03 14:10,   -4.3,   -4.2,   -4.9,   -4.7,   -4.0,   -4.5,   -4.3,   -4.2,   -4.2,   -4.0,   -3.8,   -3.7,   -3.8,   -3.5,   -3.3,   -3.4,   -3.6,   -3.7,   -3.3,   -3.3,   -3.2,   -3.1,   -3.1,   -3.0,   -3.3,   -3.0,   -2.8,   -2.7,   -2.7,   -2.3,   -2.2,   -2.2,   -2.1,   -2.0,   -1.1,   -0.2,   -0.3,   -0.4,   -0.5,   -0.5,   -0.4,   -0.5,   -0.7,   -0.5,   -0.5,   -0.2,   -0.2,    0.4,    0.6,   -0.1,   -0.1,    0.0,    0.1,   -0.5,   -0.0,   -0.7,   -0.6,   -0.7,   -0.7,   -0.8,   -0.7,   -1.8,   -2.9,   -2.9,  999.0,   -2.8,   -2.2,   -2.0,   -1.8,   -1.8,   -1.6,   -1.9,   -1.8,  999.0,   -1.9,   -1.7,  999.0,   -1.7,   -1.3,  999.0,  999.0,   -1.0,   -1.1,   -0.8,   -1.3,   -1.1,   -0.9,   -1.2,   -1.0,  999.0,  999.0,  999.0,  999.0,  999.0,  999.0,  999.0,   -1.2,  999.0
2010/06/03 14:20,   -1.2,   -2.1,   -1.3,   -0.8,   -0.8,   -0.7,   -0.6,   -0.7,   -0.8,   -1.1,   -0.5,    0.1,    0.1,    0.1,   -0.7,   -0.8,   -0.8,   -0.8,   -0.9,   -0.7,   -0.5,   -0.4,   -0.4,   -0.4,   -0.0,   -0.8,   -0.3,   -0.0,    0.1,    0.0,    0.1,   -0.0,    0.2,   -0.2,    0.2,   -0.1,    0.2,    0.2,    0.1,    0.0,    0.1,    0.0,    0.0,   -0.0,   -0.0,    0.1,   -1.4,   -1.2,   -1.6,   -1.9,   -1.7,   -1.6,   -1.6,   -1.5,   -1.5,   -1.2,   -1.1,   -1.0,   -1.0,   -0.8,   -0.8,   -1.0,   -0.8,   -1.3,   -0.8,   -0.6,   -1.2,   -0.7,   -0.7,   -0.7,   -1.2,   -0.5,   -0.6,   -0.7,   -0.6,   -1.3,   -0.5,   -1.3,   -1.7,   -1.2,   -1.3,   -1.2,  999.0,   -0.7,   -0.8,   -1.1,   -1.3,   -0.7,  999.0,  999.0,   -0.6,   -0.5,   -0.4,   -0.6,   -0.4,   -0.2,   -0.4,   -0.4
2010/06/03 14:30,   -0.2,   -0.1,    0.0,    0.1,    0.1,    0.1,    0.2,    0.2,    0.2,    0.2,    0.1,    0.0,    0.1,   -0.1,   -0.2,   -0.2,   -0.0,    0.1,    0.2,   -0.0,   -0.1,   -0.3,   -0.3,   -0.4,   -0.6,   -0.6,   -0.5,   -0.3,   -0.3,   -0.3,   -0.1,    0.1,   -0.1,   -0.2,   -0.2,   -0.0,   -0.0,   -0.1,   -0.0,    0.0,    0.1,    0.1,    0.1,    0.1,    0.1,    0.1,    0.2,    0.1,    0.1,   -0.0,   -0.0,   -0.0,   -0.0,   -0.1,   -0.0,   -0.0,   -0.1,   -0.1,    0.0,    0.1,   -0.3,    0.0,   -0.3,   -0.6,  999.0,   -0.5,    0.3,    0.1,  999.0,   -0.1,   -0.5,   -0.3,  999.0,  999.0,  999.0,  999.0,  999.0,  999.0,  999.0,  999.0,  999.0,  999.0,  999.0,  999.0,  999.0,  999.0,  999.0,  999.0,  999.0,  999.0,  999.0,  999.0,  999.0,  999.0,  999.0,  999.0,  999.0,  999.0
2010/06/03 14:40,    0.2,    0.3,    0.4,    0.4,    0.5,    0.6,    0.4,    0.3,    0.1,    0.1,    0.1,   -0.1,   -0.3,   -0.3,   -0.3,   -0.1,    0.0,    0.1,    0.0,   -0.2,   -0.0,   -0.4,   -0.3,   -0.2,   -0.1,   -0.1,   -0.1,   -0.1,   -0.2,   -0.2,   -0.2,  999.0,   -0.0,    0.1,    0.1,   -0.0,    0.1,    0.0,   -0.0,    0.0,   -0.2,   -0.1,    0.2,    0.3,    0.3,    0.2,    0.2,    0.0,   -0.0,   -0.1,   -0.1,    0.0,    0.0,    0.0,   -0.0,    0.0,   -0.0,   -0.1,   -0.1,    0.0,    0.0,   -0.0,  999.0,  999.0,  999.0,  999.0,  999.0,  999.0,  999.0,  999.0,  999.0,  999.0,  999.0,  999.0,  999.0,  999.0,  999.0,  999.0,  999.0,  999.0,  999.0,  999.0,  999.0,  999.0,  999.0,  999.0,  999.0,  999.0,  999.0,  999.0,  999.0,  999.0,  999.0,  999.0,  999.0,  999.0,  999.0,  999.0
2010/06/03 14:50,   -0.1,   -0.3,   -0.2,   -0.1,   -0.1,   -0.3,   -0.3,   -0.5,   -0.4,   -0.9,   -0.7,   -0.9,   -0.7,   -0.7,   -0.6,   -0.3,   -0.2,   -0.3,   -0.5,    0.0,   -0.4,   -0.4,   -0.3,   -0.2,   -0.1,   -0.2,   -0.2,   -0.2,   -0.2,   -0.2,   -0.2,   -0.3,   -0.2,   -0.3,    0.0,   -0.0,    0.0,    0.0,   -0.0,   -0.0,   -0.0,   -0.0,    0.0,   -0.1,   -0.1,   -0.3,   -0.3,   -0.2,   -0.1,   -0.0,    0.0,   -0.0,   -0.0,   -0.0,   -0.0,   -0.0,    0.0,   -0.0,   -0.0,    0.0,    0.0,    0.0,  999.0,  999.0,   -0.1,  999.0,  999.0,  999.0,  999.0,  999.0,  999.0,  999.0,  999.0,  999.0,  999.0,  999.0,  999.0,  999.0,  999.0,  999.0,  999.0,  999.0,  999.0,  999.0,  999.0,  999.0,  999.0,  999.0,  999.0,  999.0,  999.0,  999.0,  999.0,  999.0,  999.0,  999.0,  999.0,  999.0
2010/06/03 15:00,   -0.0,   -0.7,   -0.7,   -0.8,   -1.1,   -0.4,   -0.5,   -0.2,   -0.7,   -0.6,    0.1,   -0.0,    0.0,   -0.0,    0.1,    0.5,    0.5,    0.5,    0.3,    0.2,    0.2,   -0.1,   -0.2,   -0.4,   -0.4,   -0.5,   -0.2,   -0.2,   -0.1,   -0.1,   -0.1,    0.2,    0.2,    0.2,    0.1,    0.1,   -0.0,    0.0,   -0.1,    0.0,    0.1,   -0.0,    0.1,    0.1,    0.0,   -0.1,  999.0,    0.1,    0.0,    0.1,    0.1,    0.0,   -0.0,    0.0,    0.0,   -0.0,    0.0,    0.0,    0.0,   -0.0,    0.0,   -0.2,   -0.0,  999.0,   -0.0,    0.0,  999.0,  999.0,  999.0,    0.3,  999.0,  999.0,  999.0,  999.0,  999.0,  999.0,  999.0,  999.0,  999.0,  999.0,  999.0,  999.0,  999.0,  999.0,  999.0,  999.0,  999.0,  999.0,  999.0,  999.0,  999.0,  999.0,  999.0,  999.0,  999.0,  999.0,  999.0,  999.0
2010/06/03 15:10,   -0.0,   -0.2,   -0.2,   -0.0,    0.0,    0.2,    0.2,    0.2,    0.1,    0.3,    0.3,    0.2,    0.3,    0.3,    0.3,    0.2,    0.2,    0.1,   -0.0,   -0.1,   -0.2,   -0.1,   -0.1,   -0.1,   -0.0,    0.1,    0.2,    0.3,    0.3,    0.2,   -0.1,   -0.1,   -0.0,   -0.1,   -0.1,   -0.2,   -0.2,   -0.1,   -0.0,    0.0,   -0.0,   -0.0,   -0.0,    0.1,   -0.0,    0.0,    0.0,  999.0,   -0.1,   -0.0,    0.0,   -0.0,   -0.0,   -0.0,   -0.0,   -0.0,   -0.0,   -0.1,   -0.0,   -0.0,    0.0,   -0.0,  999.0,  999.0,  999.0,  999.0,  999.0,  999.0,  999.0,  999.0,  999.0,  999.0,  999.0,  999.0,  999.0,  999.0,  999.0,  999.0,  999.0,  999.0,  999.0,  999.0,  999.0,  999.0,  999.0,  999.0,  999.0,    0.0,  999.0,  999.0,  999.0,  999.0,  999.0,  999.0,  999.0,  999.0,  999.0,  999.0
2010/06/03 15:20,   -0.1,   -0.1,    0.0,    0.0,   -0.0,   -0.0,    0.1,   -0.0,   -0.0,   -0.1,   -0.2,   -0.3,   -0.4,   -0.1,   -0.0,   -0.1,   -0.3,   -0.2,   -0.2,   -0.1,   -0.1,   -0.1,   -0.0,    0.0,    0.1,    0.3,    0.5,    0.6,    0.6,    0.5,    0.6,    0.5,    0.2,    0.2,    0.0,    0.2,    0.0,   -0.0,    0.0,   -0.0,   -0.0,   -0.0,    0.1,    0.0,   -0.1,   -0.1,  999.0,   -0.1,   -0.0,   -0.2,   -0.1,    0.0,    0.1,   -0.1,    0.1,   -0.0,    0.0,    0.0,   -0.0,    0.0,    0.0,  999.0,  999.0,  999.0,  999.0,  999.0,  999.0,  999.0,  999.0,  999.0,  999.0,  999.0,  999.0,  999.0,  999.0,  999.0,  999.0,  999.0,  999.0,  999.0,  999.0,  999.0,  999.0,  999.0,  999.0,  999.0,  999.0,  999.0,  999.0,  999.0,  999.0,  999.0,  999.0,  999.0,  999.0,  999.0,  999.0,  999.0
2010/06/03 15:30,    0.1,    0.2,   -0.0,   -0.1,   -0.2,   -0.1,   -0.1,   -0.1,   -0.1,   -0.1,   -0.2,   -0.1,    0.0,    0.4,    0.3,    0.2,    0.1,   -0.1,   -0.3,   -0.5,   -0.7,   -0.7,   -0.4,   -0.4,   -0.4,   -0.1,   -0.2,   -0.1,    0.2,    0.3,    0.2,  999.0,    0.2,    0.3,    0.4,  999.0,  999.0,    0.3,    0.2,    0.2,    0.0,    0.0,   -0.0,    0.1,    0.3,    0.4,    0.2,    0.1,    0.0,  999.0,  999.0,  999.0,  999.0,   -0.0,  999.0,  999.0,  999.0,  999.0,    0.0,   -0.0,   -0.0,  999.0,  999.0,  999.0,  999.0,  999.0,  999.0,  999.0,  999.0,  999.0,  999.0,  999.0,  999.0,  999.0,  999.0,  999.0,  999.0,  999.0,  999.0,  999.0,  999.0,  999.0,  999.0,  999.0,  999.0,  999.0,  999.0,  999.0,   -0.1,  999.0,  999.0,  999.0,  999.0,  999.0,  999.0,  999.0,  999.0,  999.0
2010/06/03 15:40,   -0.3,   -0.1,   -0.0,   -0.1,    0.0,   -0.0,   -0.0,   -0.1,   -0.1,   -0.1,   -0.0,   -0.0,    0.1,    0.1,    0.1,    0.1,   -0.0,   -0.0,   -0.1,   -0.1,   -0.1,   -0.0,   -0.1,    0.0,    0.0,    0.1,    0.1,    0.2,    0.2,    0.6,    0.7,    0.5,    0.2,    0.4,   -0.0,    0.1,   -0.1,   -0.1,   -0.0,    0.0,   -0.0,   -0.1,    0.0,    0.1,    0.3,    0.1,    0.3,    0.3,    0.4,    0.2,    0.0,   -0.0,  999.0,    0.0,    0.0,    0.1,    0.0,    0.1,    0.2,    0.1,    0.2,    0.3,    0.2,  999.0,    0.0,  999.0,  999.0,  999.0,  999.0,  999.0,  999.0,  999.0,  999.0,  999.0,  999.0,  999.0,  999.0,  999.0,  999.0,  999.0,  999.0,  999.0,  999.0,  999.0,  999.0,  999.0,  999.0,  999.0,    0.1,  999.0,  999.0,  999.0,  999.0,  999.0,  999.0,  999.0,  999.0,  999.0
2010/06/03 15:50,   -0.2,   -0.0,   -0.0,   -0.0,    0.0,    0.0,    0.1,    0.1,    0.0,    0.1,    0.1,    0.2,    0.2,    0.2,    0.2,    0.2,    0.4,    0.2,    0.2,    0.1,    0.0,    0.1,    0.0,   -0.0,    0.1,   -0.1,   -0.0,   -0.1,   -0.0,   -0.1,   -0.3,   -0.3,   -0.2,   -0.2,    0.0,  999.0,  999.0,    0.0,   -0.0,   -0.0,   -0.0,    0.0,    0.0,    0.0,    0.0,   -0.0,  999.0,   -0.0,   -0.0,    0.0,    0.0,   -0.0,    0.0,   -0.0,   -0.1,   -0.0,    0.0,   -0.0,    0.0,   -0.0,    0.0,    0.0,    0.1,  999.0,  999.0,  999.0,  999.0,  999.0,  999.0,  999.0,  999.0,  999.0,  999.0,  999.0,  999.0,  999.0,  999.0,  999.0,  999.0,  999.0,  999.0,  999.0,  999.0,  999.0,  999.0,  999.0,  999.0,  999.0,  999.0,  999.0,  999.0,  999.0,  999.0,  999.0,  999.0,  999.0,  999.0,  999.0
2010/06/03 16:00,   -0.2,   -0.2,   -0.1,   -0.1,   -0.1,   -0.1,   -0.1,   -0.1,   -0.1,   -0.2,   -0.3,   -0.2,   -0.1,   -0.1,   -0.1,   -0.1,   -0.0,    0.0,    0.1,    0.1,    0.0,   -0.1,   -0.0,    0.1,    0.0,   -0.0,   -0.0,   -0.0,   -0.1,   -0.2,   -0.2,   -0.2,   -0.3,  999.0,  999.0,  999.0,  999.0,    0.0,    0.0,    0.0,    0.0,   -0.0,    0.0,    0.0,    0.0,    0.0,   -0.0,    0.0,    0.0,   -0.0,   -0.0,    0.0,   -0.0,    0.0,    0.0,    0.0,   -0.0,   -0.1,   -0.1,   -0.0,   -0.0,   -0.0,  999.0,  999.0,  999.0,  999.0,  999.0,  999.0,   -0.1,  999.0,  999.0,  999.0,    0.4,  999.0,  999.0,  999.0,  999.0,  999.0,  999.0,  999.0,  999.0,  999.0,  999.0,  999.0,  999.0,  999.0,  999.0,  999.0,   -0.1,  999.0,  999.0,  999.0,  999.0,  999.0,  999.0,  999.0,  999.0,  999.0
2010/06/03 16:10,   -0.2,   -0.2,   -0.3,    0.1,    0.2,    0.1,   -0.0,   -0.0,   -0.1,   -0.0,    0.0,   -0.1,   -0.1,   -0.1,   -0.2,   -0.2,   -0.1,   -0.0,   -0.1,    0.0,    0.1,    0.1,    0.0,    0.2,    0.3,    0.2,    0.1,    0.1,    0.2,    0.2,  999.0,    0.2,    0.4,    0.5,    0.7,    0.6,    0.6,    0.1,    0.1,    0.1,    0.1,   -0.0,    0.0,    0.0,    0.0,    0.0,    0.2,    0.3,    0.1,    0.0,    0.0,    0.0,    0.0,    0.0,    0.0,   -0.0,    0.0,   -0.0,   -0.0,    0.0,    0.0,  999.0,  999.0,    0.1,   -0.0,   -0.0,    0.1,   -0.1,   -0.2,   -0.3,   -0.3,   -0.1,   -0.3,   -0.2,   -0.4,  999.0,  999.0,  999.0,  999.0,  999.0,  999.0,  999.0,  999.0,  999.0,  999.0,  999.0,  999.0,  999.0,  999.0,  999.0,  999.0,  999.0,  999.0,  999.0,  999.0,  999.0,  999.0,  999.0
2010/06/03 16:20,   -0.1,   -0.0,    0.0,    0.2,    0.2,    0.1,    0.1,    0.0,    0.1,    0.1,    0.1,    0.1,    0.1,    0.1,    0.1,    0.1,    0.1,    0.1,   -0.1,   -0.1,   -0.1,   -0.1,   -0.1,   -0.1,   -0.1,   -0.1,   -0.1,   -0.2,   -0.3,   -0.1,   -0.1,   -0.1,   -0.1,    0.0,    0.1,    0.0,   -0.0,    0.0,    0.0,    0.1,    0.0,    0.0,   -0.0,    0.1,   -0.0,    0.2,    0.1,    0.1,    0.2,    0.1,    0.0,   -0.0,    0.1,    0.2,    0.1,    0.0,    0.0,    0.1,    0.1,    0.0,  999.0,    0.0,   -0.0,  999.0,    0.0,   -0.1,    0.0,    0.0,    0.0,    0.0,  999.0,  999.0,  999.0,  999.0,  999.0,  999.0,  999.0,  999.0,  999.0,  999.0,  999.0,  999.0,  999.0,  999.0,  999.0,  999.0,  999.0,  999.0,  999.0,   -0.8,  999.0,   -0.7,   -0.8,  999.0,  999.0,  999.0,  999.0,  999.0
2010/06/03 16:30,    0.2,    0.2,    0.2,    0.1,    0.1,    0.0,   -0.0,   -0.1,   -0.1,   -0.1,   -0.1,    0.0,   -0.0,    0.0,    0.2,    0.2,    0.2,    0.2,    0.1,    0.1,    0.1,    0.1,    0.1,    0.1,    0.2,    0.1,    0.1,    0.2,  999.0,    0.2,    0.2,    0.3,    0.2,    0.2,    0.1,    0.2,    0.1,  999.0,    0.1,    0.1,    0.1,   -0.0,    0.0,    0.0,   -0.0,    0.0,    0.1,    0.0,   -0.1,   -0.0,   -0.1,   -0.0,   -0.1,   -0.0,   -0.4,   -0.6,   -0.4,   -0.2,   -0.3,   -0.8,   -0.6,   -0.4,   -0.7,   -1.0,   -0.9,   -0.7,   -0.6,   -0.8,  999.0,  999.0,   -1.2,   -1.0,   -1.0,   -1.1,   -1.0,   -0.9,   -1.0,   -0.9,   -0.9,   -0.9,   -1.0,   -1.0,   -0.9,   -0.9,   -0.8,   -0.8,   -0.9,   -0.8,   -0.8,   -0.8,   -0.8,   -0.8,   -0.8,   -0.7,   -0.7,   -0.6,   -0.6,   -0.6
2010/06/03 16:40,    0.4,   -0.0,   -0.1,   -0.0,   -0.0,   -0.1,   -0.1,   -0.1,   -0.1,   -0.0,   -0.1,   -0.2,   -1.4,   -0.9,   -2.2,   -0.0,   -0.1,    0.1,    0.2,    0.2,    0.1,    0.1,   -2.0,   -2.0,   -1.9,   -2.1,   -2.1,   -2.1,  999.0,  999.0,  999.0,  999.0,  999.0,  999.0,  999.0,  999.0,  999.0,   -6.4,  999.0,   -6.3,   -5.7,   -5.7,   -5.7,   -5.3,  999.0,  999.0,   -1.6,   -1.6,   -1.5,   -1.5,   -1.4,   -1.5,   -1.4,   -1.4,   -1.4,   -1.4,   -1.3,   -1.3,   -1.3,   -1.4,   -1.1,   -1.2,   -1.3,   -1.3,   -1.3,   -1.4,   -1.4,   -1.3,   -1.2,   -1.2,   -1.2,   -1.2,   -1.1,   -1.1,   -1.1,   -1.1,   -1.0,   -1.0,   -1.0,   -0.9,   -0.9,   -0.9,   -0.9,   -0.6,   -0.6,   -0.7,   -0.6,  999.0,  999.0,  999.0,  999.0,  999.0,  999.0,  999.0,  999.0,  999.0,  999.0,  999.0
2010/06/03 16:50,   -6.0,   -6.0,   -5.8,   -5.6,   -5.7,   -5.6,   -5.7,   -5.8,   -5.7,   -5.8,   -5.9,   -6.0,   -5.9,   -5.8,   -5.8,   -5.9,   -5.8,   -5.8,   -5.8,   -5.9,   -6.0,   -5.9,   -5.9,   -6.0,   -6.0,   -5.9,   -6.0,   -6.1,   -6.0,   -6.0,   -5.8,   -5.7,   -5.6,   -5.8,   -5.6,   -5.8,   -5.8,   -5.8,   -5.9,   -6.6,   -6.7,   -6.7,   -6.4,   -4.8,  999.0,  999.0,  999.0,   -1.2,   -1.0,   -1.0,   -0.9,   -0.7,   -0.6,   -0.6,   -0.4,   -0.2,   -0.1,  999.0,   -0.3,   -0.0,  999.0,  999.0,   -0.2,   -0.2,  999.0,   -0.1,  999.0,   -0.0,  999.0,  999.0,  999.0,   -0.1,   -0.3,   -0.4,   -0.3,   -0.4,   -0.5,   -0.5,   -0.5,   -0.5,  999.0,  999.0,  999.0,  999.0,  999.0,  999.0,  999.0,  999.0,  999.0,  999.0,  999.0,  999.0,  999.0,  999.0,  999.0,  999.0,  999.0,  999.0
2010/06/03 17:00,   -3.6,   -2.8,   -1.7,   -2.2,   -2.1,   -2.0,   -5.0,   -3.0,   -1.9,   -1.9,   -1.9,   -1.9,   -1.9,   -2.9,   -1.6,   -2.6,   -1.5,   -2.5,   -2.5,   -1.4,   -1.4,   -1.3,   -1.2,   -2.1,   -1.2,   -1.4,   -1.1,   -0.8,   -1.0,   -1.0,   -1.0,   -0.7,   -0.6,   -0.7,   -0.8,   -1.1,   -0.4,   -0.6,   -0.5,   -0.6,   -0.5,   -0.4,   -0.0,  999.0,   -0.0,   -0.1,   -0.2,   -0.1,   -0.0,   -0.0,   -0.0,    0.0,    0.0,    0.0,   -0.0,    0.0,   -0.1,   -0.0,   -0.0,    0.0,   -0.1,    0.0,   -0.1,  999.0,    0.1,  999.0,   -0.0,   -0.2,  999.0,  999.0,  999.0,  999.0,    0.1,   -0.1,    0.0,  999.0,  999.0,  999.0,  999.0,  999.0,  999.0,  999.0,  999.0,  999.0,  999.0,  999.0,  999.0,  999.0,  999.0,  999.0,  999.0,  999.0,  999.0,  999.0,  999.0,  999.0,  999.0,  999.0
2010/06/03 17:10,    0.2,    0.1,   -0.3,   -0.1,   -0.1,    0.0,   -0.2,   -0.0,   -0.1,   -0.0,   -0.1,   -0.2,   -0.2,   -0.1,   -0.1,   -0.1,   -0.0,    0.0,    0.0,    0.0,    0.1,    0.1,    0.2,    0.1,    0.0,    0.1,    0.1,    0.0,   -0.0,   -0.0,   -0.1,   -0.2,   -0.3,   -0.3,  999.0,   -0.3,    0.0,   -0.0,    0.0,    0.0,    0.0,    0.1,   -0.1,   -0.0,    0.0,   -0.1,   -0.1,    0.1,   -0.0,   -0.0,   -0.1,   -0.1,   -0.3,   -0.0,   -0.1,    0.0,   -0.0,   -0.1,   -0.1,   -0.0,    0.0,  999.0,  999.0,  999.0,   -0.2,  999.0,  999.0,  999.0,  999.0,  999.0,   -0.2,   -0.2,   -0.1,  999.0,   -0.1,    0.1,  999.0,  999.0,  999.0,  999.0,  999.0,  999.0,  999.0,  999.0,  999.0,  999.0,  999.0,  999.0,  999.0,  999.0,  999.0,  999.0,  999.0,  999.0,  999.0,  999.0,  999.0,  999.0
2010/06/03 17:20,   -0.2,    0.0,   -0.1,   -0.0,   -0.0,   -0.0,   -0.1,   -0.1,   -0.0,   -0.0,    0.0,   -0.0,   -0.1,   -0.1,   -0.1,   -0.0,   -0.0,   -0.1,   -0.1,   -0.1,    0.0,    0.0,    0.0,    0.0,    0.0,   -0.1,   -0.1,   -0.1,   -0.0,   -0.0,   -0.1,   -0.1,   -0.2,   -0.2,   -0.3,  999.0,   -0.1,   -0.1,   -0.0,   -0.1,    0.1,   -0.2,   -0.1,   -0.0,   -0.0,    0.1,   -0.0,   -0.0,   -0.1,   -0.1,   -0.0,   -0.0,   -0.1,   -0.0,   -0.1,   -0.1,    0.0,   -0.0,    0.1,    0.1,    0.0,   -0.1,  999.0,  999.0,  999.0,    0.0,    0.1,  999.0,   -0.1,   -0.1,   -0.1,   -0.2,  999.0,   -0.0,   -0.1,   -0.2,   -0.6,   -0.7,   -0.8,   -0.6,   -0.7,   -0.8,   -0.9,   -1.0,   -1.0,  999.0,   -0.7,   -0.6,   -0.8,  999.0,  999.0,  999.0,  999.0,  999.0,  999.0,  999.0,  999.0,  999.0
2010/06/03 17:30,    0.1,    0.1,    0.1,    0.2,    0.2,    0.2,    0.2,    0.0,    0.0,    0.1,    0.0,    0.0,    0.0,    0.0,   -0.1,   -0.3,   -0.4,   -0.3,   -0.3,   -0.1,   -0.2,   -0.1,   -0.1,   -0.1,    0.0,    0.1,    0.0,    0.0,    0.0,    0.0,   -0.1,    0.1,    0.1,   -0.1,   -0.1,   -0.1,   -0.1,    0.1,   -0.0,    0.0,   -0.0,   -0.0,    0.0,    0.0,    0.0,   -0.1,   -0.0,    0.0,   -0.0,   -0.0,    0.0,    0.0,   -0.1,   -0.0,    0.0,    0.0,   -0.0,   -0.0,    0.0,   -0.0,    0.0,    0.1,   -0.1,   -0.4,   -0.1,   -0.1,    0.0,    0.1,  999.0,    0.2,    0.2,    0.1,    0.0,  999.0,    0.1,    0.2,  999.0,  999.0,  999.0,  999.0,  999.0,  999.0,  999.0,  999.0,  999.0,  999.0,  999.0,  999.0,  999.0,  999.0,  999.0,  999.0,  999.0,  999.0,  999.0,  999.0,  999.0,  999.0
2010/06/03 17:40,   -0.0,   -0.0,    0.0,    0.0,    0.0,   -0.0,   -0.2,    0.0,   -0.0,    0.0,    0.0,    0.1,    0.0,    0.0,    0.0,   -0.0,    0.0,    0.0,    0.0,   -0.1,   -0.2,   -0.2,   -0.2,   -0.3,   -0.2,   -0.3,   -0.1,   -0.1,   -0.0,    0.0,    0.0,   -0.2,    0.1,    0.1,    0.2,    0.1,  999.0,    0.0,    0.0,    0.0,    0.0,   -0.0,    0.0,    0.0,    0.1,    0.0,  999.0,   -0.0,   -0.1,   -0.1,   -0.0,   -0.0,   -0.0,   -0.1,   -0.0,   -0.0,   -0.0,   -0.0,    0.1,    0.1,    0.1,    0.2,    0.1,   -0.0,  999.0,    0.0,   -0.2,    0.1,    0.0,    0.1,    0.2,    0.1,    0.3,    0.2,    0.3,  999.0,  999.0,  999.0,  999.0,  999.0,  999.0,  999.0,  999.0,  999.0,  999.0,  999.0,  999.0,  999.0,  999.0,  999.0,    0.0,  999.0,  999.0,  999.0,  999.0,  999.0,  999.0,  999.0
2010/06/03 17:50,  999.0,    0.1,    0.4,   -0.0,   -0.0,    0.0,   -0.1,   -0.1,   -0.1,   -0.1,   -0.1,   -0.0,   -0.0,    0.0,   -0.1,   -0.1,   -0.2,   -0.2,   -0.2,   -0.1,   -0.1,   -0.2,   -0.1,    0.0,    0.1,    0.1,    0.1,    0.1,    0.1,    0.1,   -0.3,   -0.6,   -0.5,   -0.5,   -0.5,   -0.5,   -0.5,   -0.6,   -0.7,   -0.7,    0.0,   -0.7,    0.0,   -0.1,    0.1,  999.0,   -1.6,   -0.9,   -0.7,   -0.6,   -0.6,   -0.7,   -0.8,   -1.1,   -0.7,   -0.7,   -0.8,   -0.8,   -0.8,   -0.8,   -1.0,   -0.7,   -0.7,   -0.6,   -0.6,   -0.2,   -0.1,   -0.0,    0.1,    0.2,    0.2,    0.2,   -0.0,    0.3,    0.1,    0.4,  999.0,  999.0,  999.0,  999.0,  999.0,  999.0,  999.0,  999.0,  999.0,  999.0,  999.0,  999.0,  999.0,  999.0,  999.0,  999.0,  999.0,  999.0,  999.0,  999.0,  999.0,  999.0
2010/06/03 18:00,  999.0,  999.0,  999.0,   -3.9,   -5.3,   -1.8,   -5.1,    0.3,   -1.7,   -1.6,   -1.5,   -1.5,   -1.5,   -1.4,   -4.6,   -1.9,    0.5,    0.7,   -1.3,   -3.3,   -3.2,   -2.6,   -1.6,   -2.9,   -5.7,   -6.5,   -6.1,   -6.1,   -5.4,   -5.4,   -6.4,   -5.9,   -5.2,   -5.1,   -4.9,   -5.4,   -5.0,  999.0,   -5.0,   -5.0,   -5.1,  999.0,   -5.3,   -4.4,   -3.5,   -2.7,   -2.2,   -1.9,   -1.8,   -1.7,   -1.6,   -1.5,   -1.5,   -1.4,   -1.3,   -1.3,   -1.1,   -0.9,   -0.9,   -0.8,   -0.8,   -0.9,   -0.8,   -0.8,   -0.7,   -0.7,   -0.7,   -0.4,   -0.4,   -0.6,   -0.3,   -0.2,   -0.3,   -0.2,   -0.0,    0.1,   -0.0,    0.2,  999.0,  999.0,  999.0,  999.0,  999.0,  999.0,  999.0,  999.0,  999.0,  999.0,  999.0,  999.0,  999.0,  999.0,  999.0,  999.0,  999.0,  999.0,  999.0,  999.0
2010/06/03 18:10,   -4.6,   -4.6,   -4.2,   -4.0,   -4.1,   -4.0,   -4.6,   -3.6,   -3.4,   -3.3,   -2.9,   -2.5,   -2.8,   -2.2,   -2.1,   -2.2,   -1.8,   -1.7,   -1.5,   -1.2,   -1.1,   -1.1,   -0.7,   -0.4,   -0.2,   -0.5,   -0.8,   -2.5,   -5.0,   -5.4,   -5.0,   -5.6,   -5.6,   -5.6,   -5.2,   -5.3,   -6.0,   -5.6,   -5.4,   -5.6,   -5.7,   -5.4,   -5.6,   -5.3,   -4.0,   -3.0,   -2.3,   -2.1,   -2.0,   -2.0,   -1.9,   -1.9,   -1.8,   -1.7,   -1.6,   -1.6,   -1.6,   -1.5,   -1.4,   -1.4,   -1.2,   -1.0,   -0.6,   -0.6,   -0.3,   -0.4,   -0.4,   -0.4,   -0.6,   -0.7,   -0.8,   -0.9,   -0.9,   -0.7,   -1.1,   -0.7,   -0.6,   -0.6,   -0.6,   -0.6,   -0.7,   -0.8,    0.1,    0.3,  999.0,  999.0,  999.0,  999.0,  999.0,  999.0,  999.0,  999.0,  999.0,  999.0,  999.0,  999.0,  999.0,  999.0
2010/06/03 18:20,   -5.7,   -5.2,   -7.5,   -5.6,   -5.5,   -5.5,   -5.5,   -5.6,   -7.4,   -5.5,   -5.5,   -5.6,   -7.1,   -6.7,   -5.3,   -5.3,   -4.4,   -4.3,   -5.7,   -5.4,   -5.5,   -7.2,   -7.1,   -7.0,   -6.9,   -6.6,   -6.2,   -6.4,   -7.6,   -7.0,   -6.8,   -6.9,   -6.7,   -5.5,   -5.4,   -5.5,   -5.4,   -4.1,   -3.7,   -3.0,   -2.7,   -2.8,   -2.7,   -2.9,   -3.1,   -2.8,   -1.9,   -1.5,   -1.4,   -1.4,   -1.3,   -1.3,   -1.2,   -1.1,   -0.9,   -0.8,   -0.8,   -0.7,   -0.5,   -0.5,   -0.3,   -0.1,    0.1,    0.1,    0.1,    0.2,    0.2,    0.1,    0.3,    0.0,   -0.0,   -0.1,   -0.2,   -0.3,   -0.1,   -0.1,   -0.0,   -0.2,    0.0,  999.0,  999.0,  999.0,  999.0,  999.0,  999.0,  999.0,  999.0,  999.0,  999.0,  999.0,  999.0,  999.0,  999.0,  999.0,  999.0,  999.0,  999.0,  999.0
2010/06/03 18:30,   -4.2,   -4.1,   -4.0,   -3.0,   -3.7,   -3.8,   -3.4,   -3.3,   -3.3,   -3.3,   -2.6,   -2.9,   -3.2,   -3.1,   -3.2,   -3.2,   -3.3,   -3.2,   -3.1,   -3.1,   -3.0,   -2.9,   -3.0,   -2.9,   -2.9,   -3.0,   -3.0,   -3.0,   -3.0,   -2.9,   -2.8,   -2.7,   -2.5,   -2.6,   -2.4,   -2.4,   -2.7,   -2.7,   -2.6,   -2.5,   -2.5,   -2.3,   -1.9,   -1.9,   -2.0,   -2.5,   -2.7,   -2.1,   -2.2,   -2.3,   -2.4,   -2.4,   -2.2,   -2.3,   -2.3,   -2.2,   -2.2,   -2.4,   -2.6,   -2.5,   -2.4,   -1.9,   -1.7,   -1.8,   -1.5,   -1.5,   -2.0,   -1.7,   -1.9,   -1.7,   -1.7,   -1.6,   -1.5,   -1.6,   -1.3,   -1.4,   -1.6,   -1.7,   -1.5,   -1.6,   -1.4,   -1.5,   -1.3,   -1.4,   -1.4,   -1.5,   -1.9,   -2.1,   -2.5,  999.0,  999.0,  999.0,  999.0,  999.0,  999.0,  999.0,  999.0,  999.0
2010/06/03 18:40,  999.0,  999.0,   -1.0,   -1.7,   -1.7,   -1.4,   -1.6,   -2.6,   -3.2,   -2.5,   -2.3,   -2.5,   -2.5,   -2.6,   -2.6,   -2.6,   -2.6,   -2.5,   -2.5,   -3.0,   -3.7,   -3.8,   -3.6,   -5.1,  999.0,   -4.8,   -4.9,   -4.3,   -4.4,   -4.5,   -4.0,   -4.6,   -4.8,   -4.6,   -4.5,   -4.4,   -4.2,   -4.4,   -4.4,   -4.2,   -4.0,   -4.5,   -3.9,   -3.8,   -3.9,   -3.3,   -3.3,   -2.5,   -2.5,   -2.3,   -2.8,   -2.8,   -2.7,   -2.7,   -2.8,   -2.7,   -2.6,   -2.4,   -2.2,   -2.0,   -1.7,   -1.6,   -1.5,   -1.3,   -1.2,   -1.1,   -1.2,   -1.2,   -1.2,   -1.0,   -1.5,   -0.9,   -1.1,   -1.2,   -1.3,   -1.0,   -1.0,   -0.5,   -0.8,   -0.7,   -1.0,   -1.0,   -1.1,   -1.5,   -1.5,   -1.6,   -1.7,   -1.8,   -1.8,   -1.9,   -1.9,   -1.9,   -1.8,   -1.8,   -1.8,   -1.6,   -1.6,   -1.5
2010/06/03 18:50,   -4.5,   -4.5,   -5.0,   -4.7,   -5.0,   -4.8,   -4.7,   -4.6,   -4.6,   -4.4,   -4.2,   -4.4,   -4.3,   -4.2,   -4.5,   -4.4,   -4.6,   -4.6,   -4.5,   -4.3,   -4.4,   -4.5,   -3.7,   -3.6,   -3.7,   -3.7,   -3.4,   -3.3,   -3.4,   -3.5,   -3.4,   -3.3,   -3.2,   -3.0,   -3.0,   -3.0,   -3.0,   -2.7,   -2.4,   -2.5,   -2.4,   -2.1,   -2.3,   -2.4,   -2.2,   -2.2,   -1.9,   -1.7,   -1.3,   -1.1,   -1.0,   -0.9,   -0.8,   -0.7,   -0.4,   -0.2,   -0.1,   -0.1,   -0.4,   -0.5,    0.0,  999.0,  999.0,  999.0,   -0.3,   -0.5,   -0.5,   -0.4,   -0.6,   -0.8,   -0.7,   -0.6,   -0.7,   -0.4,   -0.6,   -1.0,   -1.2,   -1.6,   -1.4,   -1.5,   -1.6,   -1.6,   -1.8,   -1.9,   -2.0,   -2.1,   -2.1,   -2.2,   -2.2,   -2.2,   -2.3,   -2.3,   -2.3,   -2.2,   -2.2,   -2.1,   -2.0,   -1.9
2010/06/03 19:00,   -2.3,   -3.3,   -2.5,   -2.4,   -2.4,   -3.0,   -2.9,   -2.8,   -2.7,   -2.6,   -2.7,   -2.7,   -2.4,   -2.3,   -2.6,   -2.4,   -2.7,   -1.4,   -1.4,   -1.6,   -1.6,   -1.9,   -1.9,   -1.9,   -2.0,   -2.2,   -2.2,   -2.6,   -2.6,   -2.5,   -2.7,   -2.6,   -2.6,   -2.4,   -2.5,   -2.6,   -2.8,   -3.0,   -3.3,   -3.3,   -3.3,   -3.3,   -3.2,   -3.2,   -3.0,   -2.9,   -2.4,   -2.2,   -2.0,   -2.1,   -2.0,   -1.9,   -1.8,   -1.6,   -1.6,   -1.6,   -1.6,   -1.6,   -1.6,   -1.6,   -1.4,   -1.4,   -1.2,   -1.0,   -0.8,   -0.6,   -0.6,   -0.5,   -0.5,   -0.5,   -0.5,   -0.5,   -0.5,   -0.5,   -0.9,   -0.9,   -1.4,   -1.4,   -1.3,   -1.4,   -1.2,   -1.2,   -1.5,   -1.2,   -1.0,   -1.0,   -1.1,   -1.0,   -1.1,   -1.3,   -1.8,   -1.8,   -1.8,   -2.0,   -2.0,   -1.6,   -1.6,   -1.4
2010/06/03 19:10,   -3.5,   -2.0,   -3.1,   -2.9,   -3.1,   -3.7,   -3.6,   -3.5,   -3.5,   -3.6,   -3.8,   -3.5,   -3.4,   -3.6,   -3.5,   -3.5,   -3.3,   -3.3,   -3.5,   -3.4,   -3.4,   -3.4,   -3.4,   -3.3,   -3.2,   -3.6,   -3.6,   -3.7,   -3.7,   -3.7,   -3.6,   -3.7,   -3.6,   -3.5,   -3.7,   -4.0,   -4.2,   -4.1,   -4.2,   -3.9,   -4.1,   -4.0,   -4.0,   -4.0,   -3.3,   -2.7,   -2.1,   -2.0,   -2.0,   -1.8,   -1.7,   -1.8,   -1.8,   -1.8,   -1.7,   -1.6,   -1.6,   -1.6,   -1.6,   -1.6,   -1.6,   -1.5,   -1.5,   -1.4,   -1.3,   -1.2,   -1.1,   -0.9,   -0.8,   -0.7,   -0.6,   -0.7,   -0.7,   -0.7,   -0.6,   -0.8,   -0.6,   -0.6,   -0.6,   -0.7,   -0.9,   -1.0,   -1.0,   -0.9,   -0.8,   -0.9,   -0.9,   -0.9,   -1.0,   -1.0,   -1.0,   -1.0,   -0.9,   -0.9,   -1.1,   -1.0,   -1.0,   -0.9
2010/06/03 19:20,   -3.8,   -3.9,   -3.8,   -3.8,   -3.9,   -4.0,   -4.0,   -3.9,   -3.9,   -4.0,   -3.9,   -3.9,   -3.9,   -3.9,   -3.8,   -3.8,   -3.9,   -4.1,   -4.2,   -4.4,   -4.2,   -4.2,   -4.1,   -4.1,   -4.2,   -4.3,   -4.4,   -4.3,   -4.2,   -4.1,   -4.3,   -4.3,   -4.3,   -4.4,   -4.6,   -4.6,   -5.0,   -4.9,   -4.8,   -5.1,   -4.9,   -4.7,   -4.7,   -4.5,   -3.5,   -2.8,   -2.3,   -2.0,   -1.9,   -1.9,   -1.8,   -1.6,   -1.4,   -1.3,   -1.2,   -1.1,   -1.1,   -1.1,   -1.1,   -1.1,   -1.0,   -0.9,   -0.9,   -0.9,   -0.8,   -0.8,   -0.8,   -0.7,   -0.7,   -0.7,   -0.7,   -0.6,   -0.6,   -0.6,   -0.5,   -0.6,   -0.6,   -0.8,   -1.0,   -1.2,   -1.3,   -1.4,   -1.5,   -1.5,   -1.5,   -1.4,   -1.3,   -1.2,   -1.1,   -1.0,   -0.9,   -1.0,   -1.1,   -1.2,   -1.3,   -1.4,   -1.5,   -1.6
2010/06/03 19:30,   -4.3,   -4.5,   -4.6,   -4.7,   -4.9,   -4.9,   -5.1,   -5.1,   -5.1,   -5.0,   -5.1,   -5.1,   -5.1,   -5.1,   -5.0,   -5.1,   -5.1,   -5.0,   -5.1,   -5.1,   -5.1,   -4.9,   -4.8,   -4.8,   -5.0,   -5.1,   -5.2,   -4.9,   -4.9,   -4.9,   -5.1,   -5.0,   -5.0,   -5.5,   -5.5,   -5.8,   -5.5,   -5.7,   -5.7,   -5.7,   -6.0,   -5.7,   -5.8,   -4.2,   -3.2,   -2.6,   -2.1,   -2.0,   -1.9,   -1.8,   -1.7,   -1.6,   -1.4,   -1.2,   -1.1,   -1.1,   -1.2,   -1.2,   -1.1,   -1.3,   -1.3,   -1.4,   -1.4,   -1.4,   -1.3,   -1.3,   -1.2,   -1.1,   -1.0,   -1.0,   -1.0,   -0.8,   -0.8,   -0.7,   -0.8,   -0.6,   -0.8,   -0.8,   -1.0,   -1.0,   -1.1,   -1.3,   -1.3,   -1.2,   -1.3,   -1.2,   -1.2,   -1.3,   -1.3,   -1.3,   -1.3,   -1.4,   -1.4,   -1.3,   -1.3,   -1.3,   -1.4,   -1.2
2010/06/03 19:40,   -4.6,   -4.9,   -4.9,   -5.0,   -5.1,   -5.2,   -5.4,   -5.4,   -5.4,   -5.3,   -5.4,   -5.4,   -5.4,   -5.4,   -5.5,   -5.6,   -5.6,   -5.7,   -5.7,   -5.7,   -5.7,   -5.7,   -5.9,   -5.9,   -6.0,   -6.0,   -5.8,   -5.8,   -5.8,   -5.8,   -5.5,   -5.7,   -5.0,   -5.1,  999.0,   -5.1,   -5.1,   -5.2,   -5.5,   -5.4,   -5.6,  999.0,  999.0,   -5.0,   -4.1,   -3.5,   -3.0,   -2.6,   -2.3,   -2.1,   -1.9,   -1.6,   -1.3,   -1.0,   -0.8,   -0.6,   -0.4,   -0.3,   -0.3,   -0.4,   -0.6,   -0.8,   -0.4,   -0.5,   -0.9,   -1.2,   -1.4,   -1.6,   -1.4,   -1.5,   -1.5,   -1.6,   -1.8,   -1.7,   -1.7,   -1.5,   -1.6,   -1.7,   -1.7,   -1.7,   -1.7,   -1.7,   -1.6,   -1.5,   -1.4,   -1.4,   -1.2,   -1.1,   -1.0,   -1.0,   -0.9,   -0.8,   -0.7,   -0.7,   -0.6,   -0.5,   -0.4,   -0.0
2010/06/03 19:50,   -5.0,   -5.1,   -5.1,   -5.2,   -5.2,   -5.1,   -5.2,   -5.3,   -5.2,   -5.2,   -5.2,   -5.3,   -5.3,   -5.2,   -5.2,   -5.1,   -5.1,   -5.1,   -5.2,   -5.3,   -5.2,   -5.1,   -5.2,   -5.4,   -5.5,   -5.5,   -5.5,   -5.5,   -5.5,   -5.5,   -5.4,   -5.3,   -5.3,   -5.3,   -5.5,   -5.6,   -5.7,   -5.8,   -5.9,   -6.1,   -5.6,  999.0,   -5.3,   -4.4,   -3.6,   -3.1,   -2.9,   -2.8,   -2.6,   -2.3,   -2.0,   -1.9,   -1.7,   -1.6,   -1.4,   -1.3,   -1.2,   -1.1,   -1.0,   -1.0,   -1.1,   -0.9,   -0.9,   -0.8,   -0.7,   -0.7,   -0.8,   -0.7,   -0.7,   -0.8,   -0.8,   -1.0,   -1.1,   -1.1,   -0.9,   -0.9,   -0.9,   -0.9,   -0.9,   -0.9,   -0.7,   -1.0,   -1.0,   -0.9,   -0.9,   -0.9,   -0.9,   -0.9,   -0.9,   -0.9,   -0.9,   -0.9,   -0.9,   -0.7,   -0.7,   -0.9,   -0.8,   -0.6
2010/06/03 20:00,   -5.7,   -5.7,   -5.8,   -5.9,   -6.0,   -5.9,   -5.9,   -6.0,   -6.1,   -5.9,   -6.0,   -5.9,   -5.9,   -5.9,   -6.0,   -5.9,   -6.1,   -6.1,   -6.3,   -6.3,   -6.4,   -6.4,   -6.6,   -6.7,   -6.7,   -6.6,   -6.7,   -6.6,   -6.5,   -6.9,   -6.3,   -6.3,   -6.9,   -6.7,   -6.7,   -6.8,   -6.8,   -6.9,   -6.6,   -6.8,   -6.5,   -6.4,   -6.0,   -5.2,   -3.9,   -3.2,   -2.7,   -2.3,   -2.1,   -2.0,   -1.9,   -1.6,   -1.4,   -1.3,   -1.2,   -1.2,   -1.2,   -1.2,   -1.0,   -0.9,   -0.9,   -0.9,   -0.8,   -0.7,   -0.6,   -0.6,   -0.4,   -0.3,   -0.3,   -0.3,   -0.1,   -0.1,   -0.2,   -0.1,   -0.1,   -0.3,   -0.4,   -0.5,   -0.4,   -0.4,   -0.3,   -0.3,   -0.3,   -0.4,   -0.3,   -0.2,   -0.3,   -0.2,   -0.2,   -0.2,   -0.2,   -0.2,   -0.3,   -0.3,   -0.3,   -0.6,   -0.7,   -0.5
2010/06/03 20:10,   -5.3,   -5.9,   -5.7,   -5.6,   -5.6,   -5.7,   -5.6,   -5.9,   -6.0,   -6.1,   -6.1,   -6.1,   -6.4,   -6.3,   -6.4,   -6.4,   -6.5,   -6.7,   -6.6,   -6.8,   -7.0,   -7.1,   -7.2,   -7.3,   -7.3,   -7.3,   -7.1,   -7.0,   -7.3,   -7.3,   -7.3,   -7.4,   -7.7,   -7.8,   -7.9,   -7.9,   -7.9,  999.0,  999.0,  999.0,  999.0,  999.0,   -6.4,   -4.8,  999.0,   -3.2,   -2.8,   -2.3,   -2.1,   -1.9,   -1.6,   -1.7,   -1.7,   -1.5,   -1.5,   -1.5,   -1.5,   -1.6,   -1.6,   -1.6,   -1.5,   -1.4,   -1.3,   -1.1,   -1.0,   -0.9,   -0.9,   -0.7,   -0.6,   -0.6,   -0.7,   -0.7,   -0.8,   -0.7,   -0.7,   -0.6,   -0.6,   -0.5,   -0.4,   -0.3,   -0.3,   -0.3,   -0.3,   -0.3,   -0.4,   -0.4,   -0.4,   -0.4,   -0.4,   -0.0,    0.2,    0.3,    0.3,    0.4,    0.2,    0.3,    0.1,    0.1
2010/06/03 20:20,   -6.1,   -6.6,   -6.3,   -6.5,   -6.5,   -6.4,   -6.6,   -6.7,   -6.7,   -6.8,   -6.9,   -7.0,   -7.0,   -7.1,   -7.2,   -7.1,   -7.1,   -7.1,   -7.3,   -7.4,   -7.4,   -7.5,   -7.5,   -7.5,   -7.4,   -7.5,   -7.4,   -7.4,   -7.4,   -7.4,   -7.3,   -7.3,   -7.4,   -7.4,   -7.4,   -7.5,   -7.8,   -7.9,   -7.5,   -7.0,  999.0,  999.0,  999.0,   -4.2,   -2.9,   -2.4,   -1.4,   -1.6,   -1.4,   -1.1,   -1.0,   -0.8,   -0.6,   -0.6,   -0.7,   -0.2,   -1.4,   -1.6,   -1.2,   -1.6,   -1.7,   -1.6,   -1.3,   -1.0,   -1.2,   -1.1,   -1.0,   -1.0,   -1.1,   -1.0,   -0.9,   -0.9,   -1.0,   -1.1,   -1.1,   -1.0,   -1.1,   -0.9,   -0.8,   -0.8,   -1.0,   -0.9,   -0.8,   -0.7,   -0.7,   -0.6,   -0.6,   -0.5,   -0.6,   -0.5,   -0.5,   -0.6,   -0.6,   -0.4,   -1.4,   -1.3,   -1.4,   -1.5
2010/06/03 20:30,   -6.1,   -6.3,   -6.5,   -6.3,   -6.4,   -6.4,   -6.4,   -6.4,   -6.4,   -6.6,   -6.7,   -6.5,   -6.7,   -6.6,   -6.7,   -6.8,   -6.8,   -6.9,   -7.0,   -7.1,   -7.3,   -7.3,   -7.3,   -7.2,   -7.1,   -7.2,   -7.4,   -7.3,   -7.4,   -7.4,   -7.6,   -7.5,   -7.4,   -7.5,   -7.5,   -7.7,   -7.6,   -7.6,   -7.8,  999.0,  999.0,  999.0,   -4.9,   -3.7,   -2.5,   -2.3,   -1.8,   -1.7,   -1.7,   -1.7,   -1.6,   -1.7,   -1.9,   -2.0,   -2.1,   -2.1,   -2.1,   -1.8,   -1.4,   -1.3,   -1.0,   -1.1,   -1.0,   -1.0,   -0.9,   -1.0,   -0.9,   -1.0,   -1.0,   -0.9,   -0.9,   -0.9,   -0.8,   -0.8,   -0.8,   -0.8,   -0.7,   -0.6,   -0.6,   -0.7,   -0.6,   -0.9,   -1.0,   -0.8,   -0.7,   -0.9,   -0.8,   -0.8,   -0.5,   -0.6,   -0.6,   -0.5,   -0.4,   -0.4,  999.0,  999.0,  999.0,  999.0
2010/06/03 20:40,   -7.0,   -7.3,   -7.3,   -7.3,   -7.4,   -7.5,   -7.5,   -7.5,   -7.6,   -7.6,   -7.7,   -7.6,   -7.8,   -7.8,   -7.8,   -7.9,   -7.8,   -7.9,   -7.9,   -7.9,   -7.9,   -8.1,   -8.1,   -8.0,   -8.2,   -8.1,   -8.0,   -8.0,   -8.0,   -7.8,   -7.8,   -7.8,   -8.0,   -8.2,   -8.3,   -8.4,  999.0,   -8.4,    3.0,  999.0,   -8.1,   -6.5,   -4.7,  999.0,   -2.9,   -2.6,   -2.4,   -2.2,   -2.0,   -1.8,   -1.8,   -1.9,   -1.8,   -1.7,   -1.6,   -1.5,   -1.5,   -1.4,   -1.2,   -1.0,   -0.9,   -1.0,   -1.0,   -0.9,   -0.9,   -1.0,   -0.9,   -0.9,   -0.8,   -0.9,   -0.8,   -0.8,   -1.2,   -1.2,   -1.1,   -0.9,   -1.2,   -1.4,   -1.0,   -1.7,   -1.6,   -1.6,   -1.5,   -1.3,   -1.1,   -1.2,   -1.2,   -1.1,   -0.9,   -1.0,   -0.8,   -0.9,   -0.9,   -0.7,   -0.6,   -0.7,   -0.1,   -0.5
2010/06/03 20:50,   -7.2,   -7.3,   -7.4,   -7.4,   -7.5,   -7.5,   -7.7,   -7.6,   -7.5,   -7.4,   -7.4,   -7.4,   -7.4,   -7.4,   -7.4,   -7.3,   -7.5,   -7.5,   -7.4,   -7.4,   -7.4,   -7.3,   -7.2,   -7.3,   -7.2,   -7.1,   -7.2,   -7.2,   -7.1,   -7.1,   -7.3,   -7.4,   -7.5,   -7.7,   -7.8,   -7.8,   -7.8,   -7.6,   -7.6,   -7.5,  999.0,   -6.5,   -5.1,   -3.9,   -3.1,   -2.9,   -2.6,   -2.4,   -2.3,   -2.1,   -2.0,   -1.9,   -1.8,   -1.7,   -1.7,   -1.6,   -1.5,   -1.5,   -1.5,   -1.5,   -1.3,   -1.2,   -1.1,   -1.3,   -1.5,   -1.4,   -1.3,   -1.1,   -1.1,   -1.0,   -0.9,   -0.8,   -1.0,   -1.5,   -1.8,   -1.7,   -1.8,   -1.7,   -1.7,   -1.7,   -1.5,   -1.5,   -1.5,   -1.4,   -1.3,   -1.4,   -1.3,   -1.0,   -0.9,   -0.8,   -0.6,   -0.7,   -0.7,   -0.7,   -0.7,   -0.5,  999.0,  999.0
2010/06/03 21:00,   -6.6,   -6.5,   -6.6,   -6.7,   -6.7,   -6.7,   -6.8,   -6.8,   -6.7,   -6.7,   -6.8,   -6.8,   -6.8,   -6.7,   -6.7,   -6.5,   -6.2,   -6.2,   -6.2,   -6.2,   -6.4,   -6.4,   -6.4,   -6.6,   -6.4,   -6.1,   -6.3,   -6.5,   -6.5,   -6.6,   -6.7,   -6.8,   -6.7,   -7.1,   -7.1,   -7.0,   -7.1,   -7.1,   -6.6,   -6.5,   -6.7,   -6.1,   -4.4,   -3.6,   -2.7,   -2.3,   -2.4,   -2.3,   -2.2,   -2.2,   -2.0,   -1.7,   -1.7,   -1.5,   -1.5,   -1.6,   -1.8,   -1.8,   -1.8,   -1.7,   -1.7,   -1.2,   -1.3,   -1.4,   -1.9,   -2.3,   -2.4,   -2.1,   -2.0,   -1.8,   -1.8,   -1.7,   -1.7,   -1.7,   -1.8,   -1.9,   -1.9,   -1.9,   -2.0,   -2.0,   -2.1,   -1.8,   -1.6,   -1.4,   -1.1,   -1.0,   -1.0,   -0.9,   -0.9,   -0.6,   -0.6,   -0.5,   -0.5,   -0.5,   -0.6,   -0.5,   -0.6,   -0.6
2010/06/03 21:10,   -5.7,   -6.3,   -6.2,   -6.2,   -6.6,   -6.5,   -6.7,   -6.8,   -6.7,   -6.8,   -6.7,   -6.9,   -6.9,   -6.5,   -6.9,   -7.0,   -6.9,   -7.1,   -7.3,   -7.4,   -7.1,   -7.0,   -7.2,   -7.2,   -7.3,   -7.2,   -7.3,   -7.4,   -7.4,   -7.4,   -7.3,   -7.0,   -7.2,   -7.5,   -7.8,   -7.9,   -8.0,   -8.0,   -7.9,   -7.9,   -7.6,   -6.7,   -5.1,   -4.5,   -4.0,   -3.0,   -2.6,   -2.4,   -2.3,   -2.1,   -2.1,   -1.8,   -1.7,   -1.7,   -1.6,   -1.5,   -1.4,   -1.2,   -1.0,   -0.8,   -0.9,   -0.9,   -0.8,   -0.8,   -0.8,   -1.0,   -1.1,   -1.2,   -1.3,   -1.4,   -1.5,   -1.5,   -1.3,   -1.2,   -1.2,   -1.1,   -1.1,   -1.1,   -1.1,   -1.2,   -1.0,   -0.9,   -0.7,   -0.7,   -0.6,   -0.4,   -0.3,   -0.3,   -0.2,   -0.1,   -0.1,    0.1,  999.0,  999.0,  999.0,  999.0,  999.0,  999.0
2010/06/03 21:20,   -6.6,   -6.5,   -6.5,   -6.9,   -6.6,   -6.5,   -6.6,   -6.6,   -6.7,   -6.7,   -6.6,   -6.7,   -6.7,   -6.8,   -7.0,   -7.3,   -7.2,   -7.0,   -7.2,   -7.3,   -7.4,   -7.3,   -7.5,   -7.4,   -7.5,   -7.5,   -7.6,   -7.7,   -7.8,   -7.9,   -7.7,   -7.5,   -7.6,   -7.7,   -7.8,   -8.0,   -8.1,   -8.2,   -8.2,  999.0,  999.0,   -6.8,   -5.7,   -4.2,   -4.0,   -3.3,   -2.8,   -2.5,   -2.6,   -2.6,   -2.7,   -2.9,   -3.0,   -2.9,   -2.8,   -2.7,   -2.5,   -2.4,   -2.1,   -1.9,   -1.8,   -1.7,   -1.6,   -1.6,   -1.6,   -1.6,   -1.7,   -1.8,   -1.8,   -1.7,   -1.7,   -1.6,   -1.4,   -1.3,   -1.2,   -1.2,   -1.1,   -1.1,   -1.1,   -1.0,   -0.9,   -0.9,   -0.8,   -0.7,   -0.6,   -0.5,   -0.5,   -0.4,   -0.3,   -0.3,   -0.3,   -0.2,   -0.2,   -0.3,   -0.2,   -0.2,   -0.2,   -0.2
2010/06/03 21:30,   -7.2,  999.0,   -7.5,   -7.7,   -7.8,   -7.7,   -7.7,   -7.8,   -7.7,   -7.7,   -7.8,   -7.7,   -7.9,   -8.0,   -7.9,   -7.8,   -7.8,   -7.9,   -8.0,   -8.0,   -8.0,   -8.0,   -7.9,   -8.0,   -8.0,   -8.0,   -8.2,   -8.2,   -8.1,   -8.3,   -8.2,   -8.0,   -8.2,   -8.2,   -8.2,   -8.2,   -8.2,   -8.0,  999.0,   -7.4,  999.0,   -7.0,   -6.5,   -4.8,   -4.1,   -3.3,   -2.7,   -2.4,   -2.3,   -2.2,   -2.2,   -2.2,   -2.3,   -2.3,   -2.3,   -2.2,   -2.2,   -2.2,   -2.2,   -2.2,   -2.1,   -2.0,   -1.9,   -1.7,   -1.6,   -1.5,   -1.3,   -1.2,   -1.1,   -1.0,   -1.1,   -1.2,   -1.1,   -1.1,   -1.1,   -1.1,   -1.0,   -0.9,   -0.8,   -0.7,   -0.7,   -0.7,   -0.7,   -0.6,   -0.7,   -0.8,  999.0,  999.0,  999.0,  999.0,  999.0,  999.0,  999.0,  999.0,  999.0,  999.0,  999.0,  999.0
2010/06/03 21:40,  999.0,   -7.5,   -7.5,   -7.5,   -7.6,   -7.6,   -7.6,   -7.7,   -7.8,   -7.7,   -7.9,   -7.8,   -8.1,   -7.9,   -7.8,   -7.7,   -7.8,   -7.9,   -3.1,    0.0,    2.8,    8.1,    7.9,    7.9,    8.0,    8.1,    6.6,    4.1,    4.1,    4.2,    4.2,    4.3,    5.1,    4.2,    8.5,    8.4,    8.3,    7.9,    8.1,    8.5,  999.0,  999.0,  999.0,   -3.9,   -3.4,   -2.8,   -2.5,   -2.4,   -2.4,   -2.3,   -2.3,   -2.3,   -2.3,   -2.4,   -2.4,   -2.2,   -2.1,   -2.1,   -2.0,   -1.9,   -1.8,   -1.6,   -1.4,   -1.3,   -1.0,   -1.0,   -0.8,   -0.6,   -0.5,   -0.3,   -0.3,   -0.2,   -0.3,   -0.3,   -0.4,   -0.4,   -0.3,   -0.7,   -0.6,   -0.6,   -0.5,   -0.5,   -0.6,   -0.7,  999.0,   -0.7,   -0.6,   -0.7,   -0.5,   -0.8,   -0.8,   -0.7,   -0.7,   -0.5,   -0.5,   -0.4,  999.0,  999.0
2010/06/03 21:50,  999.0,  999.0,  999.0,  999.0,  999.0,   -8.0,   -8.1,   -3.8,   -4.6,   -6.4,   -6.4,   -8.0,   -8.1,   -7.9,   -7.9,   -7.9,   -7.8,   -7.7,   -4.6,   -4.6,   -1.2,   -1.6,    2.0,    2.0,    0.5,    2.1,    0.6,    0.5,    0.4,    0.5,    0.4,    0.4,    0.5,    2.2,    4.4,    4.5,    3.6,    1.7,    1.3,  999.0,  999.0,  999.0,  999.0,  999.0,   -2.6,   -2.2,   -1.9,   -1.9,   -1.8,   -1.8,   -1.8,   -1.7,   -1.8,   -1.8,   -1.6,   -1.5,   -1.3,   -1.2,   -1.3,   -1.2,   -1.2,   -1.1,   -1.1,   -1.1,   -1.1,   -1.0,   -0.9,   -0.8,   -0.6,   -0.6,   -0.5,   -0.4,   -0.4,   -0.3,   -0.3,   -0.3,   -0.4,   -0.4,   -0.4,   -0.6,  999.0,   -0.7,   -1.4,   -1.5,   -1.5,   -1.5,   -1.4,   -1.3,   -1.0,   -0.9,   -1.0,   -1.2,   -1.1,   -1.1,   -1.1,   -1.0,   -1.0,   -0.9
2010/06/03 22:00,   -5.3,   -5.4,   -5.6,   -5.8,   -5.8,   -5.7,   -5.7,   -5.7,   -5.7,   -5.5,   -5.6,   -5.4,   -5.3,   -5.3,   -5.3,   -5.3,   -5.4,   -5.2,   -5.2,   -5.2,   -5.4,   -5.1,   -5.3,   -5.3,   -5.1,   -5.3,   -5.7,   -5.7,   -5.5,   -5.5,   -5.2,   -5.4,   -5.4,   -5.6,   -5.4,   -5.3,   -5.2,   -5.4,   -5.2,   -5.2,   -5.3,   -5.6,   -4.0,  999.0,  999.0,   -1.6,   -1.5,   -1.5,   -1.5,   -1.4,   -1.3,   -1.2,   -1.2,   -1.1,   -1.1,   -1.0,   -1.0,   -1.3,   -1.3,   -1.3,   -1.3,   -1.4,   -1.4,   -1.3,   -1.3,   -1.3,   -1.0,   -1.3,   -1.2,   -1.1,   -1.0,   -1.0,   -1.0,   -1.0,   -1.1,   -1.2,   -1.1,   -1.1,   -1.2,   -1.3,   -1.2,   -1.2,   -1.2,   -1.1,   -1.1,   -1.1,   -1.1,   -1.1,   -1.1,   -1.0,   -0.9,   -0.9,   -0.9,   -0.8,   -0.8,   -0.8,   -0.7,   -0.7
2010/06/03 22:10,   -4.5,   -4.7,   -4.8,   -4.8,   -4.8,   -5.0,   -4.9,   -5.0,   -4.9,   -5.2,   -4.8,   -5.1,   -5.0,   -4.9,   -4.7,   -4.9,   -5.0,   -5.1,   -5.1,   -5.0,   -4.9,   -4.9,   -5.0,   -4.9,   -5.1,   -5.2,   -5.4,   -5.6,   -5.4,   -5.5,   -5.5,   -5.6,   -5.5,   -5.4,   -5.4,   -5.3,   -5.3,   -5.2,   -5.3,   -5.0,   -5.0,   -4.9,   -4.5,   -3.5,   -2.6,   -2.1,   -2.0,   -2.0,   -1.9,   -2.0,   -2.0,   -2.0,   -2.0,   -2.1,   -2.0,   -2.0,   -2.0,   -2.0,   -1.9,   -1.8,   -1.8,   -1.7,   -1.6,   -1.5,   -1.4,   -1.2,   -1.1,   -1.0,   -1.0,   -0.9,   -1.0,   -1.1,   -1.2,   -1.3,   -1.4,   -1.3,   -1.4,   -1.3,   -1.4,   -1.2,   -1.0,   -1.0,   -1.0,   -0.9,   -0.8,   -0.8,   -0.8,   -0.7,   -0.7,   -0.6,   -0.6,   -0.6,   -0.5,   -0.6,   -0.6,   -0.6,   -0.5,   -0.4
2010/06/03 22:20,   -4.9,   -4.8,   -4.9,   -4.9,   -5.1,   -5.0,   -5.0,   -5.0,   -5.0,   -4.9,   -5.1,   -5.0,   -5.1,   -4.9,   -4.9,   -5.0,   -5.0,   -5.1,   -4.9,   -5.0,   -5.0,   -4.6,   -4.7,   -5.0,   -4.9,   -4.8,   -4.9,   -4.9,   -5.0,   -5.2,   -5.2,   -5.3,   -5.2,   -5.1,   -5.1,   -5.0,   -5.0,   -5.0,   -5.1,   -5.0,   -4.9,   -4.7,   -4.8,   -4.0,  999.0,   -1.8,   -1.1,   -1.5,   -1.5,   -1.7,   -1.7,   -1.8,   -1.7,   -1.6,   -1.6,   -1.6,   -1.6,   -1.5,   -1.3,   -1.2,   -1.1,   -1.2,   -1.2,   -1.1,   -0.9,   -0.9,   -0.8,   -0.8,   -0.8,   -0.8,   -0.9,   -0.9,   -1.1,   -1.2,   -1.2,   -1.1,   -1.3,   -1.2,   -1.2,   -1.2,   -1.1,   -1.0,   -1.0,   -0.9,   -0.9,   -0.9,   -0.9,   -0.9,   -0.9,   -0.8,   -0.8,   -0.9,   -0.8,   -0.9,   -0.8,   -0.9,   -0.9,   -0.8
2010/06/03 22:30,   -3.7,   -3.8,   -3.9,   -3.7,   -4.1,   -4.3,   -4.4,   -4.2,   -4.3,   -4.3,   -4.4,   -4.4,   -4.5,   -4.6,   -4.5,   -4.5,   -4.5,   -4.5,   -4.5,   -4.7,   -4.7,   -4.8,   -5.1,   -5.2,   -5.2,   -5.2,   -5.1,   -5.2,   -5.2,   -5.1,   -5.2,   -5.1,   -5.0,   -5.2,   -5.2,   -5.1,   -5.1,   -5.3,   -5.1,   -5.0,   -5.1,   -4.9,   -4.9,   -3.8,  999.0,   -1.6,   -1.3,   -1.4,   -1.3,   -1.4,   -1.4,   -1.6,   -1.7,   -1.7,   -1.6,   -1.5,   -1.4,   -1.4,   -1.5,   -1.6,   -1.5,   -1.5,   -1.4,   -1.4,   -1.3,   -1.2,   -1.2,   -1.2,   -1.2,   -1.2,   -1.3,   -1.2,   -1.2,   -1.2,   -1.2,   -1.2,   -1.1,   -1.1,   -1.0,   -1.0,   -1.0,   -1.0,   -1.0,   -1.0,   -1.0,   -0.9,   -1.0,   -1.0,   -1.0,   -1.0,   -1.0,   -0.9,   -0.9,   -0.9,   -0.9,   -0.9,   -0.9,   -0.9
2010/06/03 22:40,   -3.5,   -3.8,   -4.2,   -4.0,   -4.6,   -4.4,   -4.7,   -5.4,   -5.3,   -5.4,   -5.3,   -5.3,   -5.4,   -5.5,   -5.5,   -5.5,   -5.5,   -5.4,   -5.4,   -5.4,   -5.3,   -5.3,   -5.3,   -5.6,   -5.7,   -5.7,   -5.7,   -5.6,   -5.4,   -5.5,   -5.3,   -5.3,   -5.4,   -5.5,   -5.7,   -5.6,   -5.6,   -5.8,   -6.0,   -5.9,   -5.7,  999.0,   -4.4,  999.0,  999.0,   -1.5,   -1.3,   -1.3,   -1.4,   -1.5,   -1.6,   -1.8,   -2.0,   -2.0,   -1.8,   -1.6,   -1.6,   -1.6,   -1.6,   -1.7,   -1.6,   -1.5,   -1.4,   -1.2,   -1.2,   -1.1,   -1.1,   -1.1,   -1.1,   -1.2,   -1.1,   -1.1,   -1.1,   -1.0,   -1.0,   -1.0,   -1.0,   -1.0,   -1.0,   -1.0,   -1.0,   -1.0,   -1.0,   -1.0,   -1.0,   -1.0,   -1.0,   -1.1,   -1.1,   -1.0,   -1.0,   -1.0,   -0.9,   -0.9,   -0.9,   -0.9,   -0.8,   -0.8
2010/06/03 22:50,   -5.1,   -5.3,   -5.1,   -5.3,   -5.3,   -5.2,   -5.3,   -5.3,   -5.3,   -5.3,   -5.4,   -5.4,   -5.6,   -5.6,   -5.6,   -5.7,   -5.6,   -5.7,   -5.8,   -5.9,   -6.0,   -5.9,   -6.0,   -6.1,   -6.1,   -6.1,   -6.2,   -6.1,   -6.2,   -6.0,   -5.6,   -5.6,   -5.6,   -5.5,   -5.8,   -5.7,   -5.7,   -5.8,   -5.8,   -5.8,   -5.6,   -5.1,   -3.7,  999.0,   -1.8,   -1.7,   -1.7,   -1.7,   -1.6,   -1.6,   -1.7,   -1.6,   -1.7,   -1.7,   -1.7,   -1.5,   -1.4,   -1.4,   -1.4,   -1.5,   -1.4,   -1.3,   -1.3,   -1.4,   -1.3,   -1.3,   -1.3,   -1.4,   -1.4,   -1.4,   -1.4,   -1.4,   -1.4,   -1.3,   -1.3,   -1.3,   -1.3,   -1.2,   -1.2,   -1.1,   -1.1,   -1.0,   -0.9,   -0.9,   -0.9,   -0.9,   -1.0,   -1.0,   -1.0,   -1.0,   -0.9,   -0.8,   -0.7,   -0.7,   -0.7,   -0.6,   -0.6,   -0.6
2010/06/03 23:00,   -4.9,   -4.8,   -4.9,   -5.0,   -5.0,   -5.0,   -5.0,   -5.1,   -5.0,   -5.1,   -5.1,   -5.2,   -5.2,   -5.3,   -5.3,   -5.3,   -5.1,   -5.1,   -5.2,   -4.9,   -5.0,   -4.9,   -4.9,   -4.7,   -4.9,   -4.9,   -4.8,   -5.1,   -5.2,   -5.4,   -5.3,   -5.2,   -5.3,   -5.3,   -5.5,   -5.3,   -5.3,   -5.6,   -5.5,   -5.5,   -5.7,   -5.1,   -4.7,  999.0,  999.0,   -2.1,   -1.8,   -1.8,   -1.8,   -1.8,   -1.7,   -1.6,   -1.6,   -1.6,   -1.5,   -1.5,   -1.5,   -1.6,   -1.6,   -1.6,   -1.6,   -1.6,   -1.6,   -1.6,   -1.5,   -1.6,   -1.6,   -1.5,   -1.5,   -1.5,   -1.4,   -1.4,   -1.2,   -1.2,   -1.1,   -1.0,   -1.0,   -1.1,   -1.1,   -1.1,   -1.1,   -1.2,   -1.2,   -1.2,   -1.2,   -1.1,   -1.0,   -1.0,   -1.0,   -0.9,   -0.9,   -0.8,   -0.8,   -0.8,   -0.8,   -0.8,   -0.8,   -0.8
2010/06/03 23:10,   -4.6,   -4.5,   -4.6,   -4.6,   -4.6,   -5.3,   -5.4,   -5.4,   -5.2,   -5.1,   -4.9,   -5.3,   -5.1,   -5.1,   -5.2,   -5.3,   -5.4,   -5.5,   -6.5,   -6.7,   -5.8,   -6.0,   -6.8,   -6.7,   -6.8,   -6.9,   -6.6,   -6.8,   -7.3,   -7.3,   -7.4,   -7.3,   -7.5,   -7.4,   -7.5,   -7.6,   -7.6,   -7.6,   -6.9,  999.0,  999.0,  999.0,  999.0,  999.0,  999.0,   -2.6,   -2.5,   -2.3,   -2.1,   -1.9,   -1.7,   -1.6,   -1.5,   -1.5,   -1.6,   -1.5,   -1.5,   -1.5,   -1.6,   -1.5,   -1.4,   -1.5,   -1.4,   -1.2,   -1.2,   -1.2,   -1.1,   -1.2,   -1.2,   -1.2,   -1.2,   -1.1,   -1.1,   -1.1,   -1.2,   -1.3,   -1.3,   -1.3,   -1.3,   -1.3,   -1.3,   -1.3,   -1.2,   -1.1,   -1.0,   -1.0,   -1.0,   -0.9,   -0.9,   -0.9,   -0.8,   -0.8,   -0.8,   -0.9,   -0.9,   -0.9,   -1.0,   -0.9
2010/06/03 23:20,  999.0,  999.0,  999.0,  999.0,  999.0,  999.0,  999.0,  999.0,  999.0,  999.0,  999.0,  999.0,  999.0,  999.0,  999.0,  999.0,  999.0,  999.0,  999.0,  999.0,  999.0,  999.0,  999.0,  999.0,  999.0,  999.0,  999.0,  999.0,  999.0,  999.0,  999.0,  999.0,  999.0,  999.0,  999.0,  999.0,  999.0,  999.0,  999.0,  999.0,  999.0,  999.0,  999.0,  999.0,  999.0,  999.0,  999.0,  999.0,  999.0,  999.0,  999.0,  999.0,  999.0,  999.0,  999.0,  999.0,  999.0,  999.0,  999.0,  999.0,  999.0,  999.0,  999.0,  999.0,  999.0,  999.0,  999.0,  999.0,  999.0,  999.0,  999.0,  999.0,  999.0,  999.0,  999.0,  999.0,  999.0,  999.0,  999.0,  999.0,  999.0,  999.0,  999.0,  999.0,  999.0,  999.0,  999.0,  999.0,  999.0,  999.0,  999.0,  999.0,  999.0,  999.0,  999.0,  999.0,  999.0,  999.0
2010/06/03 23:30,  999.0,  999.0,  999.0,  999.0,  999.0,  999.0,  999.0,  999.0,  999.0,  999.0,  999.0,  999.0,  999.0,  999.0,  999.0,  999.0,  999.0,  999.0,  999.0,  999.0,  999.0,  999.0,  999.0,  999.0,  999.0,  999.0,  999.0,  999.0,  999.0,  999.0,  999.0,  999.0,  999.0,  999.0,  999.0,  999.0,  999.0,  999.0,  999.0,  999.0,  999.0,  999.0,  999.0,  999.0,  999.0,  999.0,  999.0,  999.0,  999.0,  999.0,  999.0,  999.0,  999.0,  999.0,  999.0,  999.0,  999.0,  999.0,  999.0,  999.0,  999.0,  999.0,  999.0,  999.0,  999.0,  999.0,  999.0,  999.0,  999.0,  999.0,  999.0,  999.0,  999.0,  999.0,  999.0,  999.0,  999.0,  999.0,  999.0,  999.0,  999.0,  999.0,  999.0,  999.0,  999.0,  999.0,  999.0,  999.0,  999.0,  999.0,  999.0,  999.0,  999.0,  999.0,  999.0,  999.0,  999.0,  999.0
2010/06/03 23:40,  999.0,  999.0,  999.0,  999.0,  999.0,  999.0,  999.0,  999.0,  999.0,  999.0,  999.0,  999.0,  999.0,  999.0,  999.0,  999.0,  999.0,  999.0,  999.0,  999.0,  999.0,  999.0,  999.0,  999.0,  999.0,  999.0,  999.0,  999.0,  999.0,  999.0,  999.0,  999.0,  999.0,  999.0,  999.0,  999.0,  999.0,  999.0,  999.0,  999.0,  999.0,  999.0,  999.0,  999.0,  999.0,  999.0,  999.0,  999.0,  999.0,  999.0,  999.0,  999.0,  999.0,  999.0,  999.0,  999.0,  999.0,  999.0,  999.0,  999.0,  999.0,  999.0,  999.0,  999.0,  999.0,  999.0,  999.0,  999.0,  999.0,  999.0,  999.0,  999.0,  999.0,  999.0,  999.0,  999.0,  999.0,  999.0,  999.0,  999.0,  999.0,  999.0,  999.0,  999.0,  999.0,  999.0,  999.0,  999.0,  999.0,  999.0,  999.0,  999.0,  999.0,  999.0,  999.0,  999.0,  999.0,  999.0
2010/06/03 23:50,  999.0,  999.0,  999.0,  999.0,  999.0,  999.0,  999.0,  999.0,  999.0,  999.0,  999.0,  999.0,  999.0,  999.0,  999.0,  999.0,  999.0,  999.0,  999.0,  999.0,  999.0,  999.0,  999.0,  999.0,  999.0,  999.0,  999.0,  999.0,  999.0,  999.0,  999.0,  999.0,  999.0,  999.0,  999.0,  999.0,  999.0,  999.0,  999.0,  999.0,  999.0,  999.0,  999.0,  999.0,  999.0,  999.0,  999.0,  999.0,  999.0,  999.0,  999.0,  999.0,  999.0,  999.0,  999.0,  999.0,  999.0,  999.0,  999.0,  999.0,  999.0,  999.0,  999.0,  999.0,  999.0,  999.0,  999.0,  999.0,  999.0,  999.0,  999.0,  999.0,  999.0,  999.0,  999.0,  999.0,  999.0,  999.0,  999.0,  999.0,  999.0,  999.0,  999.0,  999.0,  999.0,  999.0,  999.0,  999.0,  999.0,  999.0,  999.0,  999.0,  999.0,  999.0,  999.0,  999.0,  999.0,  999.0
